Skip Navigation Links weather.gov 
NOAA logo-Select to go to the NOAA homepage NDBC Title GraphicClick to go to NDBC home page   Select to go to the NWS homepage
Home About Us Contact Us
 
 
    
    Station List

 Data Access
    Mobile Access
    Classic Maps
         Recent
         DART®
    Obs Search
    Ship Obs Report
    BuoyCAMs
    TAO
    DODS
    OceanSITES
    HF Radar
    OSMC
    Dial-A-Buoy
    RSS Feeds Image indicating link to RSS feed access page
    Web Widget
    Email Access
    Web Data Guide
    Maintenance Schedule
    Station Status Report

 Program Info
    TAO
    DART®
    IOOS®

 Publications
    NDBC PEA
    NDBC FONSI
    NDBC DQC Handbook

 FAQ
 Visitor Information
 
USA.gov is the U.S. government's official web portal to all federal, state and local government web resources and services.

Station MLSC1 - Moss Landing, South Harbor, CA Image indicating link to RSS feed of recent meteorological observations for station MLSC1

Station operated by Moss Landing Marine Laboratory
Coastal Marine Station
36.802 N 121.791 W (36°48'9" N 121°47'29" W)

Site elevation: 3.05 m above mean sea level
Anemometer height: 10.4 m above site elevation

Search And Rescue (SAR) Data

Meteorological Observations from Nearby Stations and Ships Image indicating link to RSS feed of recent meteorological observations near station MLSC1

Regional HF Radar Surface Current Observations

Station MLSC1
Large icon indicates selected station.
yellow diamond Stations with recent data
red diamond Stations with no data in last 8 hours
     (24 hours for tsunami stations)


Conditions at MLSC1 as of
(4:30 am PST)
1230 GMT on 02/18/2019:
     

Click on the graph icon in the table below to see a time series plot of the last five days of that observation.

5-day plot - Wind Direction Wind Direction (WDIR): E ( 100 deg true )
5-day plot - Wind Speed Wind Speed (WSPD): 4.1 kts
5-day plot - Wind Gust Wind Gust (GST): 14.0 kts
5-day plot - Atmospheric Pressure Atmospheric Pressure (PRES): 30.16 in
5-day plot - Air Temperature Air Temperature (ATMP): 36.1 °F
5-day plot - Dew Point Dew Point (DEWP): 34.0 °F
5-day plot - Wind Chill Wind Chill (CHILL): 32.2 °F
5-day plot - Wind Speed at 10 Meters Wind Speed at 10 meters (WSPD10M): 3.9 kts
5-day plot - Wind Speed at 10 Meters Wind Speed at 20 meters (WSPD20M): 3.9 kts
5-day plot - Wind Speed, Wind Gust and Atmospheric Pressure Combined plot of Wind Speed, Gust, and Air Pressure
Previous observations
5-day plot - Wind Direction 5-day plot - Wind Speed 5-day plot - Wind Gust 5-day plot - Wave Height 5-day plot - Dominant Wave Period 5-day plot - Average Period 5-day plot - Mean Wave Direction 5-day plot - Atmospheric Pressure 5-day plot - Pressure Tendency 5-day plot - Air Temperature 5-day plot - Water Temperature 5-day plot - Dew Point 5-day plot - Salinity 5-day plot - Visibility 5-day plot - Tide (above MLLW)
MM DD TIME
(PST)
WDIR WSPD
kts
GST
kts
WVHT
ft
DPD
sec
APD
sec
MWD PRES
in
PTDY
in
ATMP
°F
WTMP
°F
DEWP
°F
SAL
psu
VIS
nmi
TIDE
ft
0218 4:29 am E 4.1 11.1----30.16- 36.1- 33.8---
0218 4:28 amESE 5.1 12.0----30.16- 36.3- 34.2---
0218 4:27 amESE 5.1 14.0----30.16- 36.1- 34.0---
0218 4:26 amESE 4.1 12.0----30.16- 36.1- 34.0---
0218 4:25 amESE 5.1 13.0----30.16- 36.0- 34.0---
0218 4:24 am E 4.1 13.0----30.16- 35.8- 33.8---
0218 4:23 amESE 5.1 12.0----30.16- 35.4- 33.6---
0218 4:22 amESE 4.1 11.1----30.16- 35.2- 33.4---
0218 4:21 amESE 5.1 12.0----30.16- 35.2- 33.4---
0218 4:20 amESE 4.1 13.0----30.16- 35.1- 33.4---
0218 4:19 am E 4.1 12.0----30.16- 35.1- 33.3---
0218 4:18 am E 2.9 9.9----30.16- 35.1- 33.4---
0218 4:17 am E 4.1 9.9----30.16- 35.1- 33.3---
0218 4:16 am E 2.9 8.9----30.16- 35.1- 33.3---
0218 4:15 amESE 4.1 11.1----30.16- 35.1- 33.3---
0218 4:14 amESE 5.1 12.0----30.16- 35.1- 33.3 33.41--
0218 4:13 amESE 4.1 11.1----30.16- 35.2- 33.3---
0218 4:12 amESE 4.1 12.0----30.16- 35.2- 33.4---
0218 4:11 amESE 4.1 12.0----30.16- 35.1- 33.3---
0218 4:10 amESE 5.1 12.0----30.16- 35.1- 33.1---
0218 4:09 amESE 5.1 12.0----30.16- 34.9- 33.1---
0218 4:08 amESE 5.1 13.0----30.16- 35.1- 33.3---
0218 4:07 amESE 5.1 12.0----30.16- 35.1- 33.4---
0218 4:06 amESE 4.1 9.9----30.16- 35.2- 33.4---
0218 4:05 amESE 4.1 11.1----30.16- 35.4- 33.6---
0218 4:04 amESE 4.1 9.9----30.16- 35.4- 33.4---
0218 4:03 amESE 5.1 11.1----30.16- 35.4- 33.6---
0218 4:02 amESE 4.1 11.1----30.16- 35.4- 33.6---
0218 4:01 amESE 4.1 9.9----30.16- 35.4- 33.6---
0218 4:00 am SE 2.9 8.9----30.16- 35.6- 33.6---
0218 3:59 am SE 2.9 6.0----30.16- 35.4- 33.6---
0218 3:58 am SE 1.9 6.0----30.16- 35.4- 33.6---
0218 3:57 am SE 2.9 7.0----30.16- 35.4- 33.6---
0218 3:56 am SE 2.9 7.0----30.16- 35.4- 33.4---
0218 3:55 am SE 2.9 6.0----30.16- 35.4- 33.6---
0218 3:54 am SE 2.9 7.0----30.16- 35.4- 33.6---
0218 3:53 amSSE 1.9 7.0----30.16- 35.6- 33.8---
0218 3:52 amSSE 1.9 6.0----30.16- 35.6- 33.8---
0218 3:51 amSSE 1.9 6.0----30.16- 35.8- 34.0---
0218 3:50 am- 0.0 2.9----30.16- 35.8- 33.8---
0218 3:49 amESE 1.0 5.1----30.16- 35.8- 34.0---
0218 3:48 amESE 1.9 5.1----30.16+0.01 35.8- 33.8---
0218 3:47 amESE 1.9 5.1----30.16- 35.8- 33.8---
0218 3:46 amESE 1.9 7.0----30.16- 35.8- 33.8---
0218 3:45 amESE 1.9 6.0----30.16- 35.8- 34.0---
0218 3:44 amESE 1.9 7.0----30.16- 35.8- 33.8---
0218 3:43 amESE 1.9 7.0----30.16- 35.8- 33.8---
0218 3:42 am E 1.9 6.0----30.16- 35.6- 33.8---
0218 3:41 amESE 1.9 6.0----30.16- 35.8- 33.8---
0218 3:40 amESE 2.9 7.0----30.16- 35.8- 33.8---
0218 3:39 amESE 1.9 6.0----30.16- 35.6- 33.6---
0218 3:38 amESE 1.9 6.0----30.16- 35.6- 33.8---
0218 3:37 amESE 1.9 6.0----30.16- 35.6- 33.6---
0218 3:36 amESE 1.9 6.0----30.16- 35.6- 33.6---
0218 3:35 amESE 1.9 5.1----30.16- 35.6- 33.6---
0218 3:34 am E 2.9 8.0----30.16- 35.6- 33.8---
0218 3:33 am E 2.9 7.0----30.16- 35.6- 33.6---
0218 3:32 amESE 2.9 8.0----30.16- 35.8- 33.8---
0218 3:31 amESE 2.9 7.0----30.16- 35.6- 33.6---
0218 3:30 amESE 2.9 8.0----30.16- 35.8- 33.8---
0218 3:29 amESE 2.9 7.0----30.16- 35.8- 33.8---
0218 3:28 amESE 1.9 7.0----30.16- 36.0- 34.0---
0218 3:27 amESE 2.9 7.0----30.16- 35.8- 33.8---
0218 3:26 amESE 2.9 7.0----30.16- 35.8- 33.6---
0218 3:25 am SE 2.9 8.0----30.16- 35.8- 33.8---
0218 3:24 am SE 2.9 8.9----30.16- 36.0- 33.8---
0218 3:23 am SE 2.9 6.0----30.16- 36.0- 33.8---
0218 3:22 am SE 2.9 7.0----30.16- 36.1- 34.0---
0218 3:21 am SE 2.9 7.0----30.16- 36.1- 34.2---
0218 3:20 am SE 1.9 6.0----30.16- 36.3- 34.2---
0218 3:19 amESE 2.9 8.0----30.16- 36.1- 34.0---
0218 3:18 am SE 2.9 8.0----30.16- 36.1- 34.2---
0218 3:17 am SE 1.9 5.1----30.16- 36.1- 34.0---
0218 3:16 am SE 1.9 5.1----30.16- 36.1- 34.2---
0218 3:15 am SE 2.9 7.0----30.16- 36.1- 34.2---
0218 3:14 amESE 1.9 7.0----30.16- 36.1- 34.3 33.44--
0218 3:13 amESE 1.9 7.0----30.16- 36.5- 34.5---
0218 3:12 amESE 1.9 5.1----30.16- 36.3- 34.3---
0218 3:11 amESE 1.9 6.0----30.16- 36.3- 34.3---
0218 3:10 amESE 1.9 6.0----30.16- 36.5- 34.5---
0218 3:09 am SE 1.9 6.0----30.16- 36.5- 34.5---
0218 3:08 am SE 1.9 7.0----30.16- 36.5- 34.3---
0218 3:07 am SE 2.9 8.0----30.16- 36.7- 34.5---
0218 3:06 amESE 2.9 7.0----30.16- 36.9- 34.9---
0218 3:05 amESE 2.9 7.0----30.16- 36.9- 34.9---
0218 3:04 amESE 1.9 6.0----30.16- 36.9- 34.9---
0218 3:03 am SE 1.0 4.1----30.16- 36.7- 34.9---
0218 3:02 am SE 1.9 4.1----30.16- 36.7- 34.9---
0218 3:01 am- 0.0 0.0----30.16- 36.5- 34.9---
0218 3:00 am- 0.0 0.0----30.16- 36.5- 34.9---
0218 2:59 am- 0.0 0.0----30.16- 36.7- 34.9---
0218 2:58 am- 0.0 0.0----30.16- 36.7- 34.7---
0218 2:57 am- 0.0 1.9----30.16- 36.7- 34.7---
0218 2:56 am- 0.0 1.9----30.16- 36.9- 34.9---
0218 2:55 amESE 1.0 4.1----30.16- 36.9- 34.7---
0218 2:54 amESE 1.9 4.1----30.16- 36.9- 34.9---
0218 2:53 amESE 1.9 5.1----30.16- 36.7- 34.5---
0218 2:52 amESE 1.9 5.1----30.16- 36.5- 34.5---
0218 2:51 amESE 1.9 5.1----30.16- 36.3- 34.3---
0218 2:50 amESE 1.9 4.1----30.16- 36.3- 34.5---
0218 2:49 amESE 1.0 4.1----30.16- 36.5- 34.5---
0218 2:48 am- 0.0 0.0----30.16+0.02 36.5- 34.5---
0218 2:47 am- 0.0 0.0----30.16- 36.5- 34.5---
0218 2:46 am- 0.0 0.0----30.16- 36.7- 34.5---
0218 2:45 am- 0.0 4.1----30.16- 36.9- 34.7---
0218 2:44 am E 1.0 4.1----30.16- 36.9- 34.7---
0218 2:43 amESE 1.9 5.1----30.16- 37.0- 34.7---
0218 2:42 amESE 1.9 6.0----30.16- 37.2- 34.9---
0218 2:41 amESE 1.9 7.0----30.16- 37.0- 34.7---
0218 2:40 amESE 1.9 6.0----30.16- 37.0- 34.7---
0218 2:39 amESE 1.9 6.0----30.16- 37.2- 34.7---
0218 2:38 amESE 2.9 8.0----30.16- 37.2- 34.7---
0218 2:37 amESE 1.9 6.0----30.16- 37.4- 34.9---
0218 2:36 amESE 2.9 7.0----30.16- 37.4- 34.9---
0218 2:35 amESE 1.9 7.0----30.16- 37.6- 34.9---
0218 2:34 amESE 1.9 5.1----30.16- 37.6- 34.9---
0218 2:33 amESE 1.9 6.0----30.16- 37.6- 35.1---
0218 2:32 amESE 1.9 6.0----30.16- 37.8- 35.2---
0218 2:31 amESE 1.9 4.1----30.16- 37.8- 35.2---
0218 2:30 amESE 1.9 4.1----30.16- 37.8- 35.2---
0218 2:29 amESE 1.0 4.1----30.16- 37.8- 35.4---
0218 2:28 am- 0.0 0.0----30.16- 37.9- 35.6---
0218 2:27 am- 0.0 0.0----30.16- 37.9- 35.6---
0218 2:26 am E 1.0 4.1----30.16- 38.1- 35.6---
0218 2:25 am E 1.0 4.1----30.16- 38.1- 35.6---
0218 2:24 amESE 1.9 4.1----30.16- 37.9- 35.4---
0218 2:23 amESE 1.9 5.1----30.16- 37.9- 35.6---
0218 2:22 am E 1.9 4.1----30.16- 37.9- 35.6---
0218 2:21 am E 1.9 5.1----30.16- 38.1- 35.6---
0218 2:20 am E 1.9 6.0----30.16- 38.1- 35.6---
0218 2:19 am E 2.9 7.0----30.16- 38.1- 35.8---
0218 2:18 am E 1.9 6.0----30.16- 38.1- 35.6---
0218 2:17 am E 1.9 6.0----30.16- 38.1- 35.6---
0218 2:16 am E 1.9 6.0----30.16- 38.1- 35.6---
0218 2:15 am E 1.9 6.0----30.16- 38.1- 35.6---
0218 2:14 am E 1.9 5.1----30.16- 38.3- 35.8 33.44--
0218 2:13 am E 1.9 5.1----30.16- 38.3- 35.8---
0218 2:12 am E 1.9 5.1----30.16- 38.3- 35.8---
0218 2:11 am E 1.9 8.0----30.16- 38.3- 35.6---
0218 2:10 am E 1.9 7.0----30.16- 38.1- 35.6---
0218 2:09 am E 1.9 5.1----30.16- 38.3- 35.6---
0218 2:08 amESE 1.9 4.1----30.16- 38.5- 36.0---
0218 2:07 amESE 1.9 5.1----30.16- 38.7- 36.0---
0218 2:06 amESE 1.9 4.1----30.16- 38.7- 36.1---
0218 2:05 amESE 1.9 5.1----30.16- 38.7- 36.0---
0218 2:04 amESE 1.9 5.1----30.16- 38.7- 36.1---
0218 2:03 amESE 1.0 4.1----30.16- 38.8- 36.3---
0218 2:02 am E 1.0 4.1----30.16- 39.0- 36.3---
0218 2:01 am E 1.0 4.1----30.16- 39.0- 36.5---
0218 2:00 am- 0.0 2.9----30.16- 38.8- 36.5---
0218 1:59 am- 0.0 1.9----30.16- 38.8- 36.5---
0218 1:58 am- 0.0 0.0----30.16- 38.8- 36.3---
0218 1:57 am- 0.0 0.0----30.16- 38.8- 36.5---
0218 1:56 am- 0.0 1.9----30.16- 39.0- 36.5---
0218 1:55 am E 1.9 5.1----30.16- 39.0- 36.5---
0218 1:54 am E 1.9 5.1----30.16- 39.0- 36.5---
0218 1:53 am- 0.0 2.9----30.16- 39.0- 36.5---
0218 1:52 am- 0.0 0.0----30.16- 39.0- 36.5---
0218 1:51 am- 0.0 0.0----30.16- 39.2- 36.7---
0218 1:50 am- 0.0 0.0----30.16- 39.4- 36.9---
0218 1:49 am- 0.0 0.0----30.16- 39.4- 36.9---
0218 1:48 am- 0.0 0.0----30.16+0.03 39.4- 37.0---
0218 1:47 am- 0.0 0.0----30.16- 39.6- 37.0---
0218 1:46 am- 0.0 0.0----30.16- 39.6- 37.0---
0218 1:45 am- 0.0 1.0----30.16- 39.6- 37.0---
0218 1:44 am E 1.0 4.1----30.16- 39.6- 37.0---
0218 1:43 amENE 1.0 4.1----30.16- 39.6- 37.0---
0218 1:42 am NE 1.9 5.1----30.16- 39.4- 36.9---
0218 1:41 am NE 1.9 6.0----30.16- 39.4- 36.9---
0218 1:40 am NE 1.0 4.1----30.16- 39.4- 37.0---
0218 1:39 am NE 1.0 4.1----30.16- 39.4- 37.0---
0218 1:38 amENE 1.9 6.0----30.16- 39.2- 36.9---
0218 1:37 am E 1.0 2.9----30.16- 39.0- 36.7---
0218 1:36 am- 0.0 1.0----30.16- 39.0- 36.7---
0218 1:35 am- 0.0 0.0----30.16- 39.0- 36.7---
0218 1:34 am- 0.0 0.0----30.16- 39.2- 36.7---
0218 1:33 am- 0.0 0.0----30.16- 39.2- 36.7---
0218 1:32 am- 0.0 2.9----30.16- 39.0- 36.5---
0218 1:31 am- 0.0 2.9----30.16- 38.8- 36.5---
0218 1:30 am- 0.0 0.0----30.16- 38.8- 36.5---
0218 1:29 am- 0.0 0.0----30.16- 38.8- 36.5---
0218 1:28 am- 0.0 0.0----30.16- 38.8- 36.5---
0218 1:27 am- 0.0 0.0----30.16- 38.8- 36.3---
0218 1:26 am- 0.0 0.0----30.16- 38.7- 36.3---
0218 1:25 am- 0.0 0.0----30.16- 38.8- 36.5---
0218 1:24 am- 0.0 0.0----30.16- 38.8- 36.3---
0218 1:23 am- 0.0 0.0----30.16- 39.0- 36.5---
0218 1:22 am- 0.0 1.9----30.16- 39.0- 36.5---
0218 1:21 am- 0.0 1.9----30.16- 39.0- 36.5---
0218 1:20 am- 0.0 0.0----30.16- 39.0- 36.5---
0218 1:19 am- 0.0 0.0----30.16- 39.0- 36.5---
0218 1:18 am- 0.0 0.0----30.16- 39.0- 36.5---
0218 1:17 am- 0.0 0.0----30.16- 39.0- 36.5---
0218 1:16 am- 0.0 0.0----30.16- 39.2- 36.5---
0218 1:15 am E 1.0 2.9----30.16- 39.2- 36.5---
0218 1:14 amESE 1.0 4.1----30.16- 39.2- 36.5 33.45--
0218 1:13 amESE 1.0 4.1----30.16- 39.4- 36.7---
0218 1:12 am- 0.0 2.9----30.16- 39.4- 36.7---
0218 1:11 am- 0.0 2.9----30.16- 39.4- 36.7---
0218 1:10 amESE 1.0 4.1----30.16- 39.2- 36.7---
0218 1:09 am- 0.0 1.0----30.15- 39.2- 36.7---
0218 1:08 am E 1.0 2.9----30.15- 39.2- 36.5---
0218 1:07 am E 1.0 4.1----30.15- 39.2- 36.5---
0218 1:06 am E 1.0 4.1----30.15- 39.0- 36.5---
0218 1:05 am E 1.9 4.1----30.15- 39.2- 36.5---
0218 1:04 am E 1.9 4.1----30.15- 39.0- 36.5---
0218 1:03 am E 1.0 4.1----30.15- 39.0- 36.5---
0218 1:02 am E 1.0 4.1----30.15- 39.0- 36.3---
0218 1:01 am E 1.0 4.1----30.15- 39.0- 36.5---
0218 1:00 am- 0.0 1.9----30.15- 39.0- 36.3---
021812:59 am- 0.0 4.1----30.15- 39.0- 36.3---
021812:58 am E 1.0 4.1----30.15- 38.8- 36.1---
021812:57 am E 1.9 4.1----30.15- 39.0- 36.3---
021812:56 am E 1.9 5.1----30.15- 38.8- 36.1---
021812:55 am E 1.9 5.1----30.15- 38.8- 36.1---
021812:54 am E 1.9 6.0----30.15- 38.8- 36.1---
021812:53 am E 1.9 5.1----30.15- 39.0- 36.1---
021812:52 am E 1.9 5.1----30.15- 39.0- 36.1---
021812:51 amESE 1.9 5.1----30.15- 39.0- 36.1---
021812:50 amESE 1.9 7.0----30.15- 39.0- 36.1---
021812:49 amESE 1.9 6.0----30.15- 39.0- 36.3---
021812:48 am E 1.9 6.0----30.15+0.03 39.0- 36.1---
021812:47 am E 1.9 7.0----30.15- 39.0- 36.1---
021812:46 amESE 1.9 5.1----30.15- 39.0- 36.1---
021812:45 amESE 1.9 6.0----30.15- 39.0- 36.1---
021812:44 amESE 1.9 7.0----30.15- 39.2- 36.1---
021812:43 am E 2.9 7.0----30.15- 39.2- 36.1---
021812:42 am E 1.9 7.0----30.15- 39.2- 36.1---
021812:41 amESE 1.9 7.0----30.15- 39.4- 36.3---
021812:40 amESE 1.9 6.0----30.15- 39.2- 36.1---
021812:39 amESE 1.9 6.0----30.15- 39.4- 36.3---
021812:38 amESE 1.9 5.1----30.15- 39.4- 36.3---
021812:37 am E 1.9 6.0----30.15- 39.4- 36.3---
021812:36 am E 1.9 6.0----30.15- 39.4- 36.1---
021812:35 am E 1.9 6.0----30.15- 39.4- 36.1---
021812:34 am E 1.9 5.1----30.15- 39.4- 36.1---
021812:33 am E 1.0 4.1----30.15- 39.4- 36.1---
021812:32 am E 1.9 5.1----30.15- 39.4- 36.0---
021812:31 am E 1.0 4.1----30.15- 39.4- 36.1---
021812:30 am E 1.9 5.1----30.15- 39.4- 36.0---
021812:29 amESE 1.9 5.1----30.15- 39.6- 36.1---
021812:28 amESE 1.9 5.1----30.15- 39.7- 36.3---
021812:27 amESE 1.9 5.1----30.15- 39.7- 36.1---
021812:26 amESE 1.9 5.1----30.15- 39.7- 36.3---
021812:25 am SE 1.0 4.1----30.15- 39.7- 36.3---
021812:24 am- 0.0 2.9----30.15- 39.7- 36.3---
021812:23 am SE 1.0 2.9----30.15- 39.7- 36.3---
021812:22 am- 0.0 1.9----30.14- 39.7- 36.3---
021812:21 am- 0.0 0.0----30.14- 39.6- 36.0---
021812:20 am SE 1.0 2.9----30.14- 39.6- 35.8---
021812:19 am- 0.0 1.0----30.14- 39.6- 35.8---
021812:18 am SE 1.0 4.1----30.14- 39.7- 35.8---
021812:17 am SE 1.9 5.1----30.14- 39.9- 36.3---
021812:16 am SE 1.9 5.1----30.14- 40.3- 36.7---
021812:15 am- 0.0 0.0----30.14- 40.5- 36.9---
021812:14 am- 0.0 0.0----30.14- 40.5- 36.9 33.48--
021812:13 am- 0.0 0.0----30.14- 40.5- 36.7---
021812:12 am- 0.0 0.0----30.14- 40.3- 36.5---
021812:11 am- 0.0 0.0----30.14- 40.1- 36.3---
021812:10 am- 0.0 0.0----30.14- 40.1- 36.5---
021812:09 am- 0.0 0.0----30.14- 40.1- 36.5---
021812:08 am- 0.0 0.0----30.14- 40.1- 36.5---
021812:07 am- 0.0 0.0----30.14- 40.1- 36.5---
021812:06 am- 0.0 0.0----30.14- 40.1- 36.5---
021812:05 am- 0.0 0.0----30.14- 39.9- 36.5---
021812:04 am- 0.0 0.0----30.14- 39.9- 36.5---
021812:03 am- 0.0 0.0----30.14- 40.1- 36.5---
021812:02 am- 0.0 0.0----30.14- 40.1- 36.5---
021812:01 am- 0.0 0.0----30.14- 40.1- 36.3---
021812:00 am- 0.0 0.0----30.14- 40.1- 36.3---
021711:50 pm E 1.9 5.1----30.14- 40.3- 36.0---
021711:49 pm E 1.9 4.1----30.14- 40.3- 36.0---
021711:48 pm E 1.9 6.0----30.14+0.03 40.3- 36.0---
021711:47 pm E 2.9 7.0----30.14- 40.3- 36.1---
021711:46 pm E 2.9 8.0----30.14- 40.1- 36.0---
021711:45 pm E 2.9 7.0----30.14- 40.1- 36.1---
021711:44 pm E 1.9 6.0----30.13- 40.1- 36.1---
021711:43 pm E 1.9 5.1----30.14- 40.1- 36.3---
021711:42 pm E 1.9 5.1----30.14- 40.1- 36.1---
021711:41 pm E 1.0 4.1----30.14- 40.1- 36.1---
021711:40 pm E 1.9 4.1----30.13- 40.3- 36.1---
021711:39 pm E 1.0 4.1----30.13- 40.1- 36.1---
021711:38 pm E 1.0 4.1----30.13- 40.3- 36.3---
021711:37 pm E 1.9 4.1----30.13- 40.1- 36.1---
021711:36 pmENE 1.0 4.1----30.13- 40.1- 36.1---
021711:35 pmENE 1.9 5.1----30.13- 40.1- 36.1---
021711:34 pmENE 1.9 5.1----30.13- 40.3- 36.3---
021711:33 pm E 1.0 4.1----30.13- 40.1- 36.1---
021711:32 pm- 0.0 2.9----30.13- 39.9- 36.1---
021711:31 pm- 0.0 1.0----30.13- 39.9- 36.1---
021711:30 pm- 0.0 0.0----30.13- 39.9- 36.1---
021711:29 pm- 0.0 0.0----30.13- 39.9- 36.1---
021711:28 pm- 0.0 0.0----30.13- 39.9- 36.1---
021711:27 pm- 0.0 0.0----30.13- 39.9- 36.1---
021711:26 pm- 0.0 0.0----30.13- 40.1- 36.0---
021711:25 pm SE 1.0 4.1----30.13- 40.1- 36.1---
021711:24 pmESE 1.0 4.1----30.13- 40.1- 36.1---
021711:23 pmESE 1.9 5.1----30.13- 40.1- 36.1---
021711:22 pmESE 1.9 5.1----30.13- 40.1- 36.1---
021711:21 pmESE 1.0 4.1----30.13- 40.1- 36.1---
021711:20 pm E 1.9 6.0----30.13- 40.3- 36.1---
021711:19 pmESE 1.9 5.1----30.13- 40.3- 36.1---
021711:18 pm E 1.0 4.1----30.13- 40.3- 36.0---
021711:17 pmESE 1.9 5.1----30.13- 40.3- 36.0---
021711:16 pm SE 1.9 5.1----30.13- 40.3- 36.0---
021711:15 pm SE 1.9 5.1----30.13- 40.3- 35.8---
021711:14 pm SE 1.9 5.1----30.13- 40.3- 35.8 33.45--
021711:13 pm SE 1.9 5.1----30.13- 40.3- 35.8---
021711:12 pm SE 1.9 5.1----30.13- 40.3- 35.8---
021711:11 pm SE 1.0 4.1----30.13- 40.5- 35.8---
021711:10 pm SE 1.0 4.1----30.13- 40.5- 36.0---
021711:09 pm SE 1.0 4.1----30.13- 40.6- 36.0---
021711:08 pm SE 1.9 5.1----30.13- 40.6- 36.0---
021711:07 pm SE 1.0 4.1----30.13- 40.6- 36.0---
021711:06 pm SE 1.9 4.1----30.13- 40.8- 36.0---
021711:05 pm SE 1.9 4.1----30.13- 40.8- 36.0---
021711:04 pmESE 1.0 4.1----30.13- 40.8- 36.1---
021711:03 pmESE 1.0 2.9----30.13- 40.8- 36.1---
021711:02 pm- 0.0 1.9----30.13- 40.8- 36.1---
021711:01 pm- 0.0 1.9----30.13- 40.6- 36.0---
021711:00 pmESE 1.9 4.1----30.13- 40.6- 36.0---
021710:59 pmESE 1.9 4.1----30.13- 40.5- 36.0---
021710:58 pmESE 1.0 4.1----30.13- 40.5- 36.0---
021710:57 pmESE 1.0 4.1----30.13- 40.5- 36.0---
021710:56 pmESE 1.0 4.1----30.13- 40.5- 35.8---
021710:55 pmESE 1.0 4.1----30.13- 40.5- 35.8---
021710:54 pmESE 1.0 2.9----30.13- 40.5- 35.6---
021710:53 pmESE 1.0 4.1----30.13- 40.3- 35.6---
021710:52 pmESE 1.0 4.1----30.13- 40.3- 35.4---
021710:51 pmESE 1.9 5.1----30.13- 40.3- 35.4---
021710:50 pmESE 2.9 7.0----30.13- 40.5- 35.4---
021710:49 pmESE 2.9 8.9----30.13- 40.6- 35.6---
021710:48 pm SE 4.1 9.9----30.13+0.05 40.8- 35.6---
021710:47 pmESE 2.9 8.9----30.13- 41.0- 35.8---
021710:46 pmESE 2.9 8.0----30.13- 41.2- 35.8---
021710:45 pmESE 1.9 7.0----30.13- 41.2- 36.0---
021710:44 pmESE 1.9 6.0----30.13- 41.2- 35.8---
021710:43 pmESE 2.9 7.0----30.13- 41.2- 35.8---
021710:42 pmESE 2.9 7.0----30.13- 41.4- 35.8---
021710:41 pmESE 2.9 8.9----30.13- 41.4- 35.8---
021710:40 pmESE 2.9 9.9----30.13- 41.4- 35.6---
021710:39 pmESE 2.9 9.9----30.13- 41.4- 35.4---
021710:38 pmESE 4.1 8.9----30.13- 41.4- 35.4---
021710:37 pmESE 2.9 8.0----30.13- 41.4- 35.4---
021710:36 pm SE 2.9 7.0----30.13- 41.5- 35.6---
021710:35 pm SE 2.9 8.0----30.13- 41.5- 35.4---
021710:34 pmSSE 4.1 9.9----30.13- 41.5- 35.4---
021710:33 pmSSE 4.1 9.9----30.13- 41.5- 35.4---
021710:32 pm SE 4.1 11.1----30.13- 41.9- 35.8---
021710:31 pmSSE 4.1 12.0----30.13- 42.3- 35.8---
021710:30 pmSSE 2.9 8.0----30.13- 42.3- 35.8---
021710:29 pm SE 1.9 5.1----30.12- 42.4- 35.8---
021710:28 pm SE 1.9 5.1----30.12- 42.4- 35.6---
021710:27 pm SE 1.9 5.1----30.12- 42.6- 35.8---
021710:26 pm SE 1.9 5.1----30.12- 42.8- 35.6---
021710:25 pm SE 1.9 5.1----30.12- 43.2- 35.8---
021710:24 pm SE 1.9 5.1----30.12- 43.3- 35.8---
021710:23 pm- 0.0 1.0----30.12- 43.7- 36.0---
021710:22 pm- 0.0 0.0----30.12- 43.9- 36.0---
021710:21 pm- 0.0 2.9----30.12- 43.9- 36.0---
021710:20 pm- 0.0 2.9----30.12- 43.7- 35.8---
021710:19 pm- 0.0 0.0----30.12- 43.9- 36.1---
021710:18 pm- 0.0 0.0----30.12- 43.9- 36.0---
021710:17 pm E 1.0 4.1----30.12- 43.9- 36.1---
021710:16 pm- 0.0 2.9----30.12- 43.9- 36.0---
021710:15 pm E 1.0 2.9----30.12- 43.9- 36.0---
021710:14 pm E 1.0 4.1----30.12- 44.1- 36.0 33.44--
021710:13 pm E 1.9 4.1----30.12- 44.1- 36.0---
021710:12 pm E 1.9 5.1----30.12- 44.1- 36.1---
021710:11 pm E 1.9 5.1----30.12- 44.2- 36.1---
021710:10 pm E 1.9 5.1----30.12- 44.2- 36.3---
021710:09 pmENE 1.0 4.1----30.12- 44.4- 36.3---
021710:08 pm- 0.0 2.9----30.12- 44.4- 36.3---
021710:07 pm- 0.0 2.9----30.12- 44.6- 36.3---
021710:06 pmENE 1.9 5.1----30.12- 44.4- 36.1---
021710:05 pm NE 1.9 6.0----30.12- 44.4- 36.1---
021710:04 pmENE 1.9 5.1----30.12- 44.6- 36.3---
021710:03 pmENE 1.9 5.1----30.12- 44.6- 36.1---
021710:02 pmENE 1.9 5.1----30.12- 44.6- 36.0---
021710:01 pm NE 1.9 7.0----30.12- 44.6- 36.0---
021710:00 pm NE 2.9 8.9----30.12- 44.6- 36.1---
0217 9:59 pm NE 1.9 5.1----30.12- 44.8- 36.1---
0217 9:58 pm NE 1.9 5.1----30.12- 44.8- 36.1---
0217 9:57 pmENE 1.9 5.1----30.12- 44.8- 36.0---
0217 9:56 pmENE 1.9 5.1----30.12- 44.8- 36.1---
0217 9:55 pmENE 1.9 5.1----30.12- 44.6- 35.8---
0217 9:54 pm NE 1.9 6.0----30.12- 44.6- 35.8---
0217 9:53 pm NE 1.9 6.0----30.12- 44.4- 35.8---
0217 9:52 pm NE 1.9 6.0----30.12- 44.4- 36.0---
0217 9:51 pm- 0.0 1.0----30.12- 44.6- 35.8---
0217 9:50 pmENE 1.9 5.1----30.12- 44.6- 36.0---
0217 9:49 pm- 0.0 1.9----30.12- 44.6- 35.8---
0217 9:48 pmENE 1.0 4.1----30.12+0.05 44.6- 35.6---
0217 9:47 pmENE 1.9 5.1----30.12- 44.6- 35.6---
0217 9:46 pmENE 1.9 5.1----30.12- 44.8- 35.6---
0217 9:45 pm E 1.9 6.0----30.12- 44.8- 35.6---
0217 9:44 pm E 1.9 6.0----30.12- 44.8- 35.4---
0217 9:43 pm E 1.9 7.0----30.12- 44.8- 35.8---
0217 9:42 pm E 1.9 6.0----30.12- 44.8- 35.6---
0217 9:41 pmESE 1.9 4.1----30.12- 44.8- 35.4---
0217 9:40 pmESE 1.9 5.1----30.12- 45.0- 35.4---
0217 9:39 pm E 1.9 5.1----30.12- 45.1- 35.4---
0217 9:38 pm E 1.9 6.0----30.12- 45.1- 35.2---
0217 9:37 pm E 1.9 5.1----30.12- 45.1- 35.2---
0217 9:36 pm E 2.9 7.0----30.12- 45.1- 35.2---
0217 9:35 pm E 2.9 7.0----30.12- 45.1- 35.2---
0217 9:34 pm E 2.9 8.0----30.12- 45.3- 35.2---
0217 9:33 pm E 2.9 8.9----30.11- 45.3- 35.4---
0217 9:32 pm E 1.9 8.0----30.11- 45.3- 35.4---
0217 9:31 pmESE 2.9 8.0----30.11- 45.3- 35.2---
0217 9:30 pm E 2.9 11.1----30.11- 45.5- 35.6---
0217 9:29 pm E 2.9 12.0----30.11- 45.5- 35.4---
0217 9:28 pm E 2.9 8.9----30.11- 45.5- 35.6---
0217 9:27 pm E 4.1 9.9----30.11- 45.5- 35.4---
0217 9:26 pm E 4.1 9.9----30.11- 45.5- 35.6---
0217 9:25 pmESE 2.9 7.0----30.11- 45.7- 35.4---
0217 9:24 pm E 4.1 9.9----30.11- 45.9- 35.6---
0217 9:23 pmENE 2.9 9.9----30.11- 45.9- 35.6---
0217 9:22 pmENE 4.1 11.1----30.11- 45.9- 36.0---
0217 9:21 pm E 2.9 9.9----30.11- 45.9- 35.8---
0217 9:20 pmENE 4.1 9.9----30.11- 45.9- 35.8---
0217 9:19 pmENE 4.1 11.1----30.11- 46.0- 36.0---
0217 9:18 pm NE 4.1 11.1----30.11- 45.9- 36.0---
0217 9:17 pm NE 2.9 11.1----30.11- 45.9- 36.1---
0217 9:16 pmENE 4.1 12.0----30.11- 45.5- 36.3---
0217 9:15 pmENE 4.1 13.0----30.11- 45.5- 36.5---
0217 9:14 pm NE 2.9 7.0----30.11- 45.5- 36.7 33.42--
0217 9:13 pmENE 2.9 8.0----30.11- 45.5- 36.5---
0217 9:12 pmENE 2.9 8.9----30.11- 45.7- 36.5---
0217 9:11 pmENE 4.1 11.1----30.11- 45.7- 36.5---
0217 9:10 pm NE 5.1 17.1----30.11- 45.7- 36.7---
0217 9:09 pm NE 5.1 15.0----30.11- 45.9- 36.7---
0217 9:08 pmNNE 5.1 15.9----30.11- 45.9- 36.3---
0217 9:07 pmNNE 5.1 12.0----30.11- 46.0- 36.3---
0217 9:06 pmNNE 4.1 12.0----30.11- 46.2- 36.5---
0217 9:05 pmNNE 4.1 12.0----30.11- 46.2- 36.5---
0217 9:04 pmNNE 4.1 15.9----30.11- 46.6- 36.9---
0217 9:03 pmNNE 4.1 12.0----30.11- 46.9- 36.9---
0217 9:02 pmNNE 4.1 11.1----30.11- 47.5- 37.4---
0217 9:01 pmNNE 4.1 12.0----30.11- 48.2- 37.9---
0217 9:00 pmNNE 4.1 13.0----30.11- 48.4- 37.9---
0217 8:59 pm N 5.1 18.1----30.11- 48.4- 37.9---
0217 8:58 pm N 6.0 17.1----30.11- 48.6- 37.9---
0217 8:57 pmNNW 7.0 21.0----30.11- 48.4- 37.9---
0217 8:56 pmNNW 7.0 22.0----30.11- 48.4- 37.8---
0217 8:55 pm N 5.1 17.1----30.11- 48.4- 37.8---
0217 8:54 pmNNW 7.0 21.0----30.11- 48.2- 37.4---
0217 8:53 pm N 6.0 19.0----30.11- 48.4- 37.8---
0217 8:52 pm N 7.0 22.9----30.11- 48.4- 37.8---
0217 8:51 pm N 6.0 20.0----30.10- 48.4- 37.6---
0217 8:50 pmNNW 8.0 21.0----30.10- 48.4- 37.9---
0217 8:49 pm N 7.0 20.0----30.10- 48.4- 38.1---
0217 8:48 pmNNW 7.0 22.0----30.10+0.06 48.4- 37.9---
0217 8:47 pmNNW 7.0 22.0----30.10- 48.6- 38.3---
0217 8:46 pmNNW 6.0 20.0----30.10- 48.4- 37.8---
0217 8:45 pmNNW 8.0 24.1----30.10- 48.4- 37.9---
0217 8:44 pmNNW 7.0 25.1----30.10- 48.6- 38.3---
0217 8:43 pmNNW 8.0 24.1----30.10- 48.4- 38.1---
0217 8:42 pmNNW 7.0 24.1----30.10- 48.6- 38.5---
0217 8:41 pmNNW 8.0 22.9----30.10- 48.6- 38.5---
0217 8:40 pmNNW 7.0 24.1----30.10- 48.6- 38.7---
0217 8:39 pmNNW 8.0 21.0----30.10- 48.6- 38.7---
0217 8:38 pmNNW 7.0 22.0----30.10- 48.6- 39.0---
0217 8:37 pmNNW 7.0 21.0----30.09- 48.7- 38.8---
0217 8:36 pmNNW 7.0 24.1----30.09- 48.7- 38.7---
0217 8:35 pmNNW 8.0 25.1----30.09- 48.6- 38.5---
0217 8:34 pmNNW 6.0 22.0----30.09- 48.6- 39.0---
0217 8:33 pmNNW 7.0 21.0----30.09- 48.6- 38.7---
0217 8:32 pmNNW 6.0 20.0----30.09- 48.4- 38.5---
0217 8:31 pm N 6.0 20.0----30.09- 48.6- 38.5---
0217 8:30 pm N 7.0 24.1----30.09- 48.6- 37.8---
0217 8:29 pmNNW 8.0 24.1----30.09- 48.6- 37.6---
0217 8:28 pmNNW 7.0 25.1----30.09- 48.6- 37.9---
0217 8:27 pmNNW 7.0 25.1----30.09- 48.6- 38.5---
0217 8:26 pmNNW 7.0 22.9----30.09- 48.6- 38.1---
0217 8:25 pm NW 7.0 22.9----30.09- 48.6- 37.9---
0217 8:24 pmNNW 8.0 22.9----30.09- 48.7- 37.9---
0217 8:23 pmNNW 7.0 22.0----30.09- 48.6- 37.9---
0217 8:22 pm NW 8.9 28.0----30.09- 48.7- 38.3---
0217 8:21 pm NW 8.9 27.0----30.09- 48.7- 38.1---
0217 8:20 pm NW 9.9 28.0----30.09- 48.7- 38.1---
0217 8:19 pm NW 8.9 24.1----30.09- 48.7- 38.3---
0217 8:18 pmNNW 7.0 20.0----30.09- 48.7- 38.3---
0217 8:17 pmNNW 7.0 22.0----30.09- 48.6- 37.8---
0217 8:16 pm NW 7.0 22.0----30.09- 48.6- 37.9---
0217 8:15 pmNNW 6.0 22.9----30.09- 48.9- 39.4---
0217 8:14 pmNNW 5.1 17.1----30.09- 48.6- 37.9 33.39--
0217 8:13 pmNNW 7.0 21.0----30.09- 48.6- 37.8---
0217 8:12 pmNNW 7.0 22.0----30.09- 48.6- 37.4---
0217 8:11 pm NW 8.9 25.1----30.09- 48.7- 38.1---
0217 8:10 pm NW 8.0 25.1----30.09- 48.7- 38.1---
0217 8:09 pm NW 8.9 29.9----30.09- 48.9- 38.5---
0217 8:08 pm NW 9.9 28.9----30.09- 48.9- 38.8---
0217 8:07 pm NW 8.0 25.1----30.09- 48.4- 37.2---
0217 8:06 pmNNW 7.0 22.0----30.09- 48.4- 36.9---
0217 8:05 pm NW 9.9 27.0----30.09- 48.6- 37.9---
0217 8:04 pm NW 8.9 24.1----30.09- 48.6- 37.6---
0217 8:03 pm NW 9.9 28.0----30.09- 48.6- 38.1---
0217 8:02 pm NW 7.0 21.0----30.09- 48.4- 37.4---
0217 8:01 pm NW 8.0 22.0----30.08- 48.4- 37.0---
0217 8:00 pm NW 7.0 21.0----30.08- 48.6- 37.4---
0217 7:59 pm NW 8.0 22.0----30.08- 48.7- 38.1---
0217 7:58 pm NW 8.0 22.0----30.08- 48.4- 37.2---
0217 7:57 pm NW 8.0 21.0----30.08- 48.4- 36.9---
0217 7:56 pmNNW 7.0 22.0----30.08- 48.6- 37.8---
0217 7:55 pmNNW 8.0 22.9----30.08- 48.7- 38.1---
0217 7:54 pmNNW 7.0 19.0----30.08- 48.6- 37.4---
0217 7:53 pm NW 7.0 22.0----30.08- 48.6- 37.2---
0217 7:52 pm NW 7.0 20.0----30.08- 48.7- 37.9---
0217 7:51 pm NW 6.0 21.0----30.08- 48.6- 37.2---
0217 7:50 pm NW 7.0 19.0----30.08- 48.6- 37.2---
0217 7:49 pmNNW 7.0 20.0----30.08- 48.6- 37.2---
0217 7:48 pmNNW 7.0 22.0----30.08+0.05 48.7- 37.8---
0217 7:47 pmNNW 8.0 22.9----30.08- 48.6- 37.6---
0217 7:46 pmNNW 7.0 19.0----30.08- 48.6- 37.6---
0217 7:45 pmNNW 7.0 20.0----30.08- 48.6- 37.8---
0217 7:44 pmNNW 6.0 17.1----30.08- 48.6- 37.6---
0217 7:43 pmNNW 7.0 22.9----30.08- 48.6- 37.4---
0217 7:42 pm NW 7.0 22.0----30.08- 48.6- 37.9---
0217 7:41 pmNNW 7.0 20.0----30.08- 48.7- 37.9---
0217 7:40 pm N 8.0 25.1----30.08- 48.9- 38.7---
0217 7:39 pmNNW 5.1 17.1----30.08- 48.7- 37.9---
0217 7:38 pmNNW 8.0 22.9----30.08- 48.9- 38.3---
0217 7:37 pmNNW 7.0 22.9----30.08- 48.9- 39.2---
0217 7:36 pmNNW 6.0 22.0----30.08- 48.6- 37.4---
0217 7:35 pm N 7.0 22.0----30.08- 48.7- 37.9---
0217 7:34 pm N 6.0 22.0----30.08- 48.7- 38.1---
0217 7:33 pm N 8.9 28.0----30.08- 48.9- 38.1---
0217 7:32 pmNNW 7.0 25.1----30.08- 49.1- 38.8---
0217 7:31 pmNNW 8.0 22.9----30.08- 48.7- 37.4---
0217 7:30 pmNNW 9.9 28.0----30.08- 49.1- 38.7---
0217 7:29 pmNNW 8.9 25.1----30.08- 48.9- 38.1---
0217 7:28 pmNNW 8.0 26.0----30.08- 48.9- 37.6---
0217 7:27 pmNNW 7.0 21.0----30.08- 48.7- 37.2---
0217 7:26 pmNNW 7.0 20.0----30.08- 48.9- 38.1---
0217 7:25 pmNNW 7.0 24.1----30.08- 48.9- 36.9---
0217 7:24 pmNNW 8.0 28.0----30.08- 49.1- 37.8---
0217 7:23 pm NW 8.0 26.0----30.08- 49.1- 37.8---
0217 7:22 pm NW 7.0 21.0----30.08- 49.1- 38.5---
0217 7:21 pmNNW 8.0 25.1----30.08- 49.1- 38.1---
0217 7:20 pmNNW 7.0 25.1----30.08- 49.1- 37.8---
0217 7:19 pmNNW 8.0 28.0----30.08- 49.1- 37.6---
0217 7:18 pmNNW 11.1 33.0----30.08- 49.1- 37.2---
0217 7:17 pm NW 8.9 26.0----30.08- 49.1- 37.4---
0217 7:16 pm NW 8.0 24.1----30.08- 49.1- 36.7---
0217 7:15 pm NW 9.9 27.0----30.08- 49.1- 37.4---
0217 7:14 pm NW 9.9 27.0----30.08- 49.1- 36.7 33.37--
0217 7:13 pm NW 8.9 28.0----30.08- 49.1- 37.0---
0217 7:12 pm NW 11.1 31.1----30.08- 49.3- 36.9---
0217 7:11 pm NW 9.9 27.0----30.08- 49.3- 37.0---
0217 7:10 pm NW 9.9 28.9----30.08- 49.3- 37.2---
0217 7:09 pm NW 11.1 32.1----30.08- 49.3- 37.4---
0217 7:08 pm NW 9.9 31.1----30.08- 49.3- 36.5---
0217 7:07 pm NW 12.0 31.1----30.08- 49.5- 37.2---
0217 7:06 pm NW 11.1 31.1----30.08- 49.6- 38.1---
0217 7:05 pm NW 9.9 28.0----30.08- 49.5- 37.0---
0217 7:04 pmNNW 8.0 25.1----30.08- 49.5- 37.0---
0217 7:03 pmNNW 7.0 24.1----30.08- 49.5- 37.4---
0217 7:02 pm NW 8.9 27.0----30.08- 49.5- 36.7---
0217 7:01 pmNNW 8.9 31.1----30.08- 49.3- 36.1---
0217 7:00 pm NW 9.9 27.0----30.07- 49.5- 37.0---
0217 6:59 pm NW 9.9 27.0----30.07- 49.5- 37.4---
0217 6:58 pm NW 9.9 28.0----30.07- 49.3- 36.9---
0217 6:57 pmNNW 8.9 28.9----30.07- 49.5- 37.4---
0217 6:56 pm NW 9.9 28.9----30.07- 49.6- 37.8---
0217 6:55 pm NW 8.9 27.0----30.07- 49.3- 35.8---
0217 6:54 pm NW 11.1 32.1----30.07- 49.5- 37.4---
0217 6:53 pm NW 8.9 25.1----30.07- 49.3- 36.1---
0217 6:52 pm NW 9.9 28.0----30.07- 49.5- 37.0---
0217 6:51 pm NW 8.9 26.0----30.07- 49.5- 37.4---
0217 6:50 pm NW 8.9 26.0----30.07- 49.5- 36.5---
0217 6:49 pm NW 9.9 27.0----30.07- 49.6- 38.1---
0217 6:48 pm NW 9.9 28.9----30.07+0.05 49.6- 37.0---
0217 6:47 pm NW 8.9 27.0----30.07- 49.8- 38.1---
0217 6:46 pm NW 8.9 26.0----30.07- 49.5- 36.3---
0217 6:45 pm NW 9.9 28.0----30.07- 49.6- 36.5---
0217 6:44 pm NW 11.1 28.9----30.07- 49.5- 36.9---
0217 6:43 pm NW 9.9 28.9----30.07- 49.6- 36.7---
0217 6:42 pm NW 11.1 32.1----30.07- 49.8- 37.6---
0217 6:41 pm NW 11.1 33.0----30.07- 49.8- 37.4---
0217 6:40 pm NW 12.0 34.0----30.07- 49.8- 38.1---
0217 6:39 pm NW 11.1 32.1----30.07- 49.8- 37.4---
0217 6:38 pm NW 9.9 28.9----30.07- 49.6- 36.5---
0217 6:37 pm NW 12.0 32.1----30.06- 49.8- 37.8---
0217 6:36 pm NW 9.9 29.9----30.06- 49.8- 37.0---
0217 6:35 pm NW 13.0 35.0----30.06- 49.8- 36.9---
0217 6:34 pm NW 12.0 35.0----30.06- 50.0- 36.9---
0217 6:33 pm NW 12.0 36.9----30.06- 50.0- 37.2---
0217 6:32 pm NW 13.0 35.9----30.06- 49.8- 36.7---
0217 6:31 pm NW 9.9 31.1----30.06- 49.8- 36.7---
0217 6:30 pm NW 9.9 29.9----30.06- 50.0- 36.1---
0217 6:29 pm NW 11.1 29.9----30.06- 49.8- 35.4---
0217 6:28 pm NW 12.0 33.0----30.06- 49.8- 36.0---
0217 6:27 pm NW 12.0 34.0----30.06- 50.2- 38.1---
0217 6:26 pm NW 12.0 35.9----30.06- 50.4- 38.7---
0217 6:25 pm NW 9.9 26.0----30.06- 50.2- 37.6---
0217 6:24 pm NW 11.1 33.0----30.06- 50.2- 37.2---
0217 6:23 pm NW 11.1 32.1----30.06- 50.4- 38.5---
0217 6:22 pm NW 8.9 28.9----30.06- 50.2- 36.9---
0217 6:21 pm NW 11.1 29.9----30.06- 50.0- 36.3---
0217 6:20 pm NW 9.9 28.9----30.06- 50.2- 36.9---
0217 6:19 pmNNW 8.9 27.0----30.06- 50.2- 36.7---
0217 6:18 pmNNW 9.9 32.1----30.06- 50.2- 37.0---
0217 6:17 pmNNW 9.9 31.1----30.06- 50.0- 35.8---
0217 6:16 pmNNW 11.1 32.1----30.06- 50.2- 36.3---
0217 6:15 pmNNW 9.9 32.1----30.06- 50.4- 36.7---
0217 6:14 pm NW 12.0 35.9----30.06- 50.2- 37.0 33.17--
0217 6:13 pmNNW 11.1 33.0----30.05- 50.0- 36.1---
0217 6:12 pmNNW 12.0 40.0----30.05- 50.2- 36.7---
0217 6:11 pm NW 14.0 41.0----30.05- 50.4- 37.4---
0217 6:10 pm NW 12.0 34.0----30.05- 50.4- 36.5---
0217 6:09 pm NW 13.0 36.9----30.05- 50.4- 37.4---
0217 6:08 pm NW 11.1 31.1----30.05- 50.2- 36.0---
0217 6:07 pm NW 12.0 34.0----30.05- 50.2- 35.2---
0217 6:06 pm NW 14.0 41.0----30.05- 50.4- 36.1---
0217 6:05 pm NW 12.0 34.0----30.05- 50.4- 35.8---
0217 6:04 pmNNW 9.9 32.1----30.05- 50.4- 36.1---
0217 6:03 pm NW 13.0 35.9----30.05- 50.4- 36.7---
0217 6:02 pm NW 12.0 35.0----30.05- 50.5- 37.2---
0217 6:01 pm NW 11.1 32.1----30.05- 50.5- 37.2---
0217 6:00 pm NW 11.1 31.1----30.05- 50.4- 36.7---
0217 5:59 pmNNW 9.9 28.0----30.05- 50.5- 37.8---
0217 5:58 pmNNW 8.9 26.0----30.05- 50.4- 37.0---
0217 5:57 pmNNW 9.9 34.0----30.04- 50.5- 37.2---
0217 5:56 pmNNW 9.9 32.1----30.04- 50.5- 36.5---
0217 5:55 pm NW 12.0 33.0----30.04- 50.5- 36.9---
0217 5:54 pm NW 13.0 35.0----30.04- 50.5- 37.0---
0217 5:53 pm NW 13.0 35.0----30.04- 50.7- 37.8---
0217 5:52 pm NW 11.1 33.0----30.04- 50.5- 37.2---
0217 5:51 pm NW 11.1 32.1----30.04- 50.7- 38.5---
0217 5:50 pm NW 11.1 31.1----30.04- 50.7- 38.3---
0217 5:49 pm NW 14.0 36.9----30.04- 50.7- 37.8---
0217 5:48 pm NW 12.0 36.9----30.04+0.01 50.7- 36.5---
0217 5:47 pm NW 13.0 35.9----30.04- 50.7- 36.5---
0217 5:46 pm NW 13.0 36.9----30.03- 50.7- 37.8---
0217 5:45 pm NW 12.0 33.0----30.03- 50.9- 38.7---
0217 5:44 pm NW 11.1 29.9----30.03- 50.7- 38.7---
0217 5:43 pm NW 11.1 32.1----30.03- 50.5- 37.6---
0217 5:42 pmWNW 14.0 38.1----30.03- 50.7- 39.0---
0217 5:41 pmWNW 13.0 35.0----30.04- 50.5- 37.4---
0217 5:40 pmWNW 15.9 42.0----30.04- 50.9- 38.5---
0217 5:39 pmWNW 13.0 39.0----30.04- 50.7- 37.4---
0217 5:38 pm NW 13.0 35.0----30.03- 50.9- 38.3---
0217 5:37 pmWNW 11.1 32.1----30.03- 50.7- 36.1---
0217 5:36 pm NW 12.0 36.9----30.03- 50.7- 37.0---
0217 5:35 pm NW 13.0 35.9----30.03- 50.7- 36.9---
0217 5:34 pm NW 14.0 41.0----30.03- 50.9- 38.7---
0217 5:33 pmWNW 15.9 44.1----30.03- 50.7- 37.0---
0217 5:32 pmWNW 15.9 40.0----30.03- 50.7- 36.3---
0217 5:31 pm NW 17.1 44.1----30.03- 50.9- 37.4---
0217 5:30 pmWNW 17.1 46.0----30.03- 50.9- 37.8---
0217 5:29 pmWNW 17.1 42.9----30.03- 50.9- 37.4---
0217 5:28 pmWNW 18.1 45.1----30.03- 50.9- 38.1---
0217 5:27 pmWNW 15.9 44.1----30.03- 50.9- 37.8---
0217 5:26 pmWNW 17.1 42.9----30.03- 51.1- 38.1---
0217 5:25 pmWNW 17.1 46.0----30.03- 51.4- 39.2---
0217 5:24 pmWNW 15.0 41.0----30.03- 51.4- 39.9---
0217 5:23 pmWNW 13.0 38.1----30.03- 51.4- 38.3---
0217 5:22 pmWNW 15.0 40.0----30.03- 51.3- 38.1---
0217 5:21 pmWNW 15.0 42.0----30.03- 50.9- 36.0---
0217 5:20 pm NW 15.9 42.9----30.03- 51.3- 37.4---
0217 5:19 pm NW 14.0 41.0----30.03- 51.3- 37.4---
0217 5:18 pm NW 12.0 35.0----30.03- 51.3- 36.7---
0217 5:17 pm NW 14.0 41.0----30.03- 51.4- 36.5---
0217 5:16 pmWNW 15.9 48.0----30.03- 51.6- 37.9---
0217 5:15 pm NW 13.0 38.1----30.03- 51.3- 36.5---
0217 5:14 pm NW 9.9 28.9----30.03- 51.4- 37.2 32.97--
0217 5:13 pm NW 11.1 33.0----30.03- 51.4- 37.8---
0217 5:12 pm NW 11.1 33.0----30.03- 51.6- 37.8---
0217 5:11 pmWNW 12.0 35.9----30.03- 51.3- 35.4---
0217 5:10 pm NW 11.1 29.9----30.03- 51.4- 36.1---
0217 5:09 pm NW 9.9 28.0----30.03- 51.6- 36.9---
0217 5:08 pm NW 9.9 31.1----30.03- 51.4- 36.5---
0217 5:07 pm NW 9.9 28.9----30.03- 51.6- 37.6---
0217 5:06 pm NW 12.0 33.0----30.03- 51.6- 37.8---
0217 5:05 pm NW 12.0 32.1----30.03- 51.8- 39.0---
0217 5:04 pm NW 9.9 34.0----30.03- 51.8- 37.9---
0217 5:03 pm NW 11.1 36.9----30.03- 51.8- 38.7---
0217 5:02 pm NW 13.0 39.0----30.03- 51.6- 37.2---
0217 5:01 pm NW 12.0 32.1----30.03- 51.8- 38.3---
0217 5:00 pm NW 13.0 40.0----30.03- 51.6- 36.9---
0217 4:59 pm NW 14.0 40.0----30.03- 51.8- 38.8---
0217 4:58 pmWNW 15.0 42.0----30.03- 51.8- 37.8---
0217 4:57 pm NW 13.0 35.9----30.03- 51.8- 37.2---
0217 4:56 pm NW 13.0 36.9----30.03- 52.0- 38.3---
0217 4:55 pm NW 8.9 32.1----30.03- 51.8- 36.9---
0217 4:54 pm NW 9.9 32.1----30.03- 52.0- 38.1---
0217 4:53 pm NW 12.0 36.9----30.03- 51.6- 35.6---
0217 4:52 pm NW 15.0 40.0----30.03- 52.0- 37.4---
0217 4:51 pm NW 12.0 38.1----30.03- 52.0- 37.0---
0217 4:50 pm NW 12.0 34.0----30.03- 51.8- 36.9---
0217 4:49 pm NW 12.0 35.9----30.03- 52.0- 37.4---
0217 4:48 pm NW 12.0 33.0----30.03-0.01 51.4- 34.9---
0217 4:47 pm NW 13.0 41.0----30.03- 51.8- 36.5---
0217 4:46 pm NW 15.0 41.0----30.03- 51.8- 35.8---
0217 4:45 pm NW 14.0 41.0----30.03- 52.0- 37.2---
0217 4:44 pm NW 13.0 38.1----30.03- 51.8- 36.3---
0217 4:43 pm NW 13.0 40.0----30.03- 51.8- 36.1---
0217 4:42 pm NW 13.0 36.9----30.03- 51.8- 36.1---
0217 4:41 pm NW 15.0 42.0----30.03- 52.0- 36.5---
0217 4:40 pm NW 13.0 40.0----30.03- 52.0- 36.5---
0217 4:39 pm NW 13.0 38.1----30.03- 52.0- 36.3---
0217 4:38 pm NW 12.0 39.0----30.02- 52.0- 36.0---
0217 4:37 pm NW 12.0 34.0----30.03- 52.0- 36.0---
0217 4:36 pm NW 13.0 39.0----30.03- 52.0- 34.5---
0217 4:35 pm NW 14.0 39.0----30.03- 52.2- 36.1---
0217 4:34 pm NW 12.0 33.0----30.03- 52.0- 34.9---
0217 4:33 pm NW 13.0 39.0----30.03- 52.0- 35.2---
0217 4:32 pm NW 14.0 35.9----30.03- 52.0- 35.1---
0217 4:31 pm NW 13.0 41.0----30.03- 52.2- 36.7---
0217 4:30 pm NW 12.0 38.1----30.03- 52.2- 36.9---
0217 4:29 pm NW 13.0 35.9----30.03- 52.2- 38.3---
0217 4:28 pm NW 11.1 36.9----30.03- 52.0- 38.1---
0217 4:27 pmWNW 13.0 35.9----30.03- 52.0- 38.8---
0217 4:26 pm NW 14.0 42.0----30.03- 51.8- 39.7---
0217 4:25 pmWNW 17.1 44.1----30.03- 51.8- 41.4---
0217 4:24 pmWNW 18.1 48.0----30.03- 51.4- 40.1---
0217 4:23 pmWNW 21.0 56.9----30.03- 51.6- 40.8---
0217 4:22 pmWNW 20.0 54.0----30.03- 51.4- 39.9---
0217 4:21 pmWNW 20.0 52.1----30.03- 51.4- 40.5---
0217 4:20 pmWNW 21.0 55.9----30.03- 51.6- 40.5---
0217 4:19 pmWNW 21.0 55.0----30.03- 51.6- 40.5---
0217 4:18 pmWNW 21.0 55.0----30.03- 51.6- 39.7---
0217 4:17 pmWNW 21.0 55.0----30.03- 51.6- 40.3---
0217 4:16 pmWNW 22.0 55.9----30.03- 51.6- 40.6---
0217 4:15 pmWNW 20.0 54.0----30.03- 51.4- 40.6---
0217 4:14 pmWNW 22.0 56.9----30.03- 51.4- 40.6 32.74--
0217 4:13 pmWNW 22.0 60.0----30.03- 51.8- 41.2---
0217 4:12 pmWNW 19.0 55.0----30.03- 51.6- 39.7---
0217 4:11 pmWNW 20.0 51.1----30.03- 51.8- 40.1---
0217 4:10 pmWNW 21.0 55.0----30.03- 51.8- 39.7---
0217 4:09 pmWNW 19.0 49.9----30.03- 51.8- 39.9---
0217 4:08 pmWNW 20.0 55.0----30.03- 51.8- 40.8---
0217 4:07 pmWNW 19.0 53.0----30.03- 52.0- 40.8---
0217 4:06 pmWNW 18.1 49.9----30.03- 51.6- 39.7---
0217 4:05 pmWNW 21.0 53.0----30.03- 51.6- 40.6---
0217 4:04 pmWNW 21.0 55.9----30.03- 51.8- 40.6---
0217 4:03 pmWNW 21.0 53.0----30.03- 51.6- 39.7---
0217 4:02 pmWNW 20.0 55.9----30.03- 51.8- 40.6---
0217 4:01 pmWNW 20.0 54.0----30.03- 51.6- 40.3---
0217 4:00 pmWNW 21.0 54.0----30.03- 51.6- 40.1---
0217 3:59 pmWNW 21.0 52.1----30.03- 51.8- 39.4---
0217 3:58 pmWNW 21.0 52.1----30.03- 51.8- 40.3---
0217 3:57 pmWNW 19.0 52.1----30.03- 51.8- 39.7---
0217 3:56 pmWNW 22.0 55.0----30.03- 51.8- 40.3---
0217 3:55 pmWNW 19.0 52.1----30.03- 52.0- 41.7---
0217 3:54 pmWNW 19.0 48.0----30.03- 51.8- 41.4---
0217 3:53 pmWNW 20.0 49.9----30.03- 51.8- 41.2---
0217 3:52 pmWNW 19.0 49.0----30.03- 51.6- 39.9---
0217 3:51 pmWNW 22.0 55.0----30.03- 52.0- 41.5---
0217 3:50 pmWNW 18.1 46.0----30.02- 51.6- 41.0---
0217 3:49 pmWNW 21.0 56.9----30.03- 51.6- 40.5---
0217 3:48 pmWNW 21.0 53.0----30.02-0.03 51.8- 41.4---
0217 3:47 pmWNW 19.0 53.0----30.02- 52.0- 41.4---
0217 3:46 pmWNW 18.1 49.0----30.03- 51.6- 40.3---
0217 3:45 pmWNW 21.0 52.1----30.03- 52.0- 41.5---
0217 3:44 pmWNW 18.1 46.0----30.02- 51.8- 41.2---
0217 3:43 pmWNW 20.0 49.9----30.03- 51.8- 41.0---
0217 3:42 pmWNW 19.0 54.0----30.03- 52.0- 40.5---
0217 3:41 pmWNW 19.0 53.0----30.02- 52.0- 40.6---
0217 3:40 pmWNW 19.0 49.9----30.02- 52.0- 38.8---
0217 3:39 pmWNW 19.0 49.0----30.02- 52.3- 41.4---
0217 3:38 pmWNW 17.1 47.0----30.02- 51.6- 39.7---
0217 3:37 pmWNW 20.0 49.9----30.02- 52.0- 41.2---
0217 3:36 pmWNW 20.0 53.0----30.02- 51.8- 41.4---
0217 3:35 pmWNW 18.1 49.9----30.02- 51.8- 40.3---
0217 3:34 pmWNW 21.0 53.0----30.02- 52.0- 39.6---
0217 3:33 pmWNW 19.0 49.9----30.02- 52.2- 40.5---
0217 3:32 pmWNW 19.0 49.9----30.02- 51.6- 40.5---
0217 3:31 pmWNW 21.0 53.0----30.02- 52.0- 41.5---
0217 3:30 pmWNW 19.0 53.0----30.02- 51.6- 40.8---
0217 3:29 pmWNW 20.0 52.1----30.02- 51.8- 41.0---
0217 3:28 pmWNW 19.0 49.9----30.02- 51.8- 40.3---
0217 3:27 pmWNW 18.1 49.0----30.02- 51.6- 40.6---
0217 3:26 pmWNW 19.0 49.9----30.03- 51.8- 41.9---
0217 3:25 pmWNW 19.0 54.0----30.02- 51.6- 40.5---
0217 3:24 pmWNW 21.0 53.0----30.02- 51.8- 39.6---
0217 3:23 pmWNW 19.0 49.0----30.03- 51.6- 39.6---
0217 3:22 pmWNW 20.0 51.1----30.03- 51.4- 38.7---
0217 3:21 pmWNW 21.0 55.9----30.03- 51.8- 39.0---
0217 3:20 pmWNW 21.0 53.0----30.03- 51.6- 39.7---
0217 3:19 pmWNW 20.0 55.9----30.03- 51.6- 39.7---
0217 3:18 pmWNW 20.0 52.1----30.03- 51.6- 39.4---
0217 3:17 pmWNW 20.0 52.1----30.03- 52.0- 41.7---
0217 3:16 pmWNW 18.1 51.1----30.03- 51.8- 40.3---
0217 3:15 pmWNW 21.0 54.0----30.03- 51.6- 39.4---
0217 3:14 pmWNW 21.0 52.1----30.03- 51.6- 39.2 33.31--
0217 3:13 pmWNW 21.0 51.1----30.03- 51.6- 39.9---
0217 3:12 pmWNW 21.0 54.0----30.03- 51.6- 39.7---
0217 3:11 pmWNW 22.0 55.9----30.03- 51.6- 39.6---
0217 3:10 pmWNW 20.0 53.0----30.03- 51.6- 38.7---
0217 3:09 pmWNW 19.0 48.0----30.03- 51.4- 38.3---
0217 3:08 pmWNW 21.0 55.0----30.03- 51.4- 38.5---
0217 3:07 pmWNW 21.0 54.0----30.03- 51.8- 40.5---
0217 3:06 pmWNW 21.0 55.0----30.03- 51.6- 40.3---
0217 3:05 pmWNW 19.0 52.1----30.03- 51.8- 40.8---
0217 3:04 pmWNW 20.0 52.1----30.03- 51.4- 39.7---
0217 3:03 pmWNW 21.0 53.0----30.03- 51.6- 40.3---
0217 3:02 pmWNW 20.0 52.1----30.03- 51.6- 40.3---
0217 3:01 pmWNW 20.0 53.0----30.03- 51.4- 39.2---
0217 3:00 pmWNW 20.0 52.1----30.03- 51.4- 39.9---
0217 2:59 pmWNW 19.0 53.0----30.03- 51.4- 39.0---
0217 2:58 pmWNW 20.0 52.1----30.03- 51.4- 39.4---
0217 2:57 pmWNW 22.0 55.0----30.03- 51.6- 40.1---
0217 2:56 pmWNW 20.0 49.9----30.03- 51.6- 41.0---
0217 2:55 pmWNW 19.0 49.9----30.03- 51.3- 39.9---
0217 2:54 pmWNW 20.0 55.0----30.03- 51.4- 40.5---
0217 2:53 pmWNW 20.0 51.1----30.03- 51.4- 40.8---
0217 2:52 pmWNW 19.0 54.0----30.03- 51.6- 41.0---
0217 2:51 pmWNW 18.1 47.0----30.03- 51.3- 39.9---
0217 2:50 pmWNW 21.0 53.0----30.03- 51.4- 40.8---
0217 2:49 pmWNW 19.0 53.0----30.03- 51.3- 40.3---
0217 2:48 pmWNW 21.0 53.0----30.03-0.05 51.4- 40.8---
0217 2:47 pmWNW 18.1 48.0----30.03- 51.3- 39.9---
0217 2:46 pmWNW 20.0 49.0----30.03- 51.4- 40.1---
0217 2:45 pmWNW 19.0 52.1----30.03- 51.4- 39.9---
0217 2:44 pmWNW 18.1 52.1----30.03- 51.4- 39.6---
0217 2:43 pmWNW 19.0 48.0----30.03- 51.4- 39.0---
0217 2:42 pmWNW 20.0 49.9----30.03- 51.4- 38.1---
0217 2:41 pmWNW 19.0 49.9----30.03- 52.0- 39.7---
0217 2:40 pmWNW 17.1 47.0----30.03- 51.6- 39.4---
0217 2:39 pmWNW 17.1 47.0----30.03- 51.4- 39.0---
0217 2:38 pmWNW 19.0 47.0----30.03- 51.8- 40.1---
0217 2:37 pmWNW 19.0 47.0----30.03- 51.8- 40.3---
0217 2:36 pmWNW 18.1 48.0----30.03- 52.0- 41.2---
0217 2:35 pmWNW 15.9 45.1----30.03- 51.8- 39.6---
0217 2:34 pmWNW 15.9 44.1----30.03- 51.4- 38.8---
0217 2:33 pmWNW 19.0 49.0----30.03- 51.8- 40.1---
0217 2:32 pmWNW 15.9 42.0----30.03- 51.6- 39.4---
0217 2:31 pmWNW 17.1 45.1----30.03- 51.8- 39.7---
0217 2:30 pmWNW 15.9 42.0----30.03- 51.6- 39.0---
0217 2:29 pmWNW 17.1 44.1----30.03- 51.4- 39.2---
0217 2:28 pmWNW 17.1 45.1----30.03- 51.3- 38.7---
0217 2:27 pmWNW 19.0 49.0----30.03- 51.8- 40.5---
0217 2:26 pmWNW 15.9 42.0----30.03- 51.4- 39.6---
0217 2:25 pmWNW 17.1 46.0----30.03- 51.3- 41.0---
0217 2:24 pmWNW 18.1 46.0----30.03- 51.4- 41.7---
0217 2:23 pmWNW 17.1 44.1----30.03- 51.3- 41.4---
0217 2:22 pmWNW 17.1 44.1----30.03- 51.1- 41.4---
0217 2:21 pmWNW 17.1 44.1----30.03- 50.9- 40.6---
0217 2:20 pmWNW 18.1 49.0----30.03- 50.9- 40.6---
0217 2:19 pmWNW 18.1 47.0----30.03- 51.1- 41.0---
0217 2:18 pmWNW 17.1 42.9----30.03- 50.9- 39.9---
0217 2:17 pmWNW 20.0 48.0----30.03- 51.3- 41.4---
0217 2:16 pmWNW 17.1 45.1----30.03- 51.1- 40.8---
0217 2:15 pmWNW 18.1 46.0----30.03- 51.4- 41.5---
0217 2:14 pmWNW 17.1 46.0----30.03- 51.1- 41.4 33.37--
0217 2:13 pmWNW 18.1 49.0----30.03- 51.1- 40.6---
0217 2:12 pmWNW 18.1 48.0----30.03- 51.3- 41.0---
0217 2:11 pmWNW 18.1 51.1----30.03- 51.4- 41.9---
0217 2:10 pmWNW 15.0 42.9----30.03- 51.1- 40.5---
0217 2:09 pmWNW 18.1 47.0----30.03- 51.1- 40.5---
0217 2:08 pmWNW 17.1 45.1----30.03- 51.1- 40.1---
0217 2:07 pmWNW 17.1 46.0----30.03- 50.7- 39.7---
0217 2:06 pmWNW 20.0 49.9----30.03- 51.1- 40.6---
0217 2:05 pmWNW 18.1 51.1----30.03- 51.1- 39.6---
0217 2:04 pmWNW 19.0 49.0----30.04- 50.9- 39.7---
0217 2:03 pmWNW 20.0 49.9----30.03- 50.7- 40.1---
0217 2:02 pmWNW 19.0 52.1----30.03- 51.3- 42.1---
0217 2:01 pmWNW 17.1 42.0----30.03- 50.7- 41.0---
0217 2:00 pmWNW 18.1 45.1----30.03- 50.7- 40.6---
0217 1:59 pmWNW 17.1 46.0----30.04- 50.9- 41.0---
0217 1:58 pmWNW 17.1 44.1----30.04- 50.2- 39.4---
0217 1:57 pmWNW 21.0 54.0----30.04- 50.4- 40.1---
0217 1:56 pmWNW 20.0 49.0----30.04- 50.7- 40.3---
0217 1:55 pmWNW 20.0 52.1----30.04- 50.5- 39.9---
0217 1:54 pmWNW 21.0 53.0----30.04- 50.9- 41.0---
0217 1:53 pmWNW 19.0 49.0----30.04- 50.5- 39.0---
0217 1:52 pmWNW 20.0 51.1----30.04- 50.7- 39.4---
0217 1:51 pmWNW 21.0 53.0----30.04- 50.5- 38.3---
0217 1:50 pmWNW 22.0 55.9----30.04- 50.7- 37.8---
0217 1:49 pmWNW 22.0 55.0----30.04- 50.7- 37.0---
0217 1:48 pmWNW 22.0 59.1----30.04-0.04 51.1- 37.8---
0217 1:47 pmWNW 20.0 54.0----30.04- 51.1- 39.4---
0217 1:46 pmWNW 21.0 55.0----30.04- 50.9- 40.5---
0217 1:45 pmWNW 22.0 60.0----30.04- 50.9- 41.2---
0217 1:44 pmWNW 21.0 52.1----30.04- 51.1- 42.4---
0217 1:43 pmWNW 22.0 59.1----30.04- 50.9- 41.5---
0217 1:42 pmWNW 22.0 62.0----30.04- 51.1- 41.2---
0217 1:41 pmWNW 22.0 58.1----30.04- 51.1- 41.4---
0217 1:40 pmWNW 22.0 62.0----30.04- 51.3- 41.4---
0217 1:39 pmWNW 21.0 56.9----30.04- 51.3- 41.9---
0217 1:38 pmWNW 20.0 54.0----30.04- 51.3- 40.3---
0217 1:37 pmWNW 22.0 59.1----30.04- 51.3- 40.1---
0217 1:36 pmWNW 20.0 55.0----30.04- 51.4- 40.1---
0217 1:35 pmWNW 20.0 54.0----30.04- 51.4- 40.5---
0217 1:34 pmWNW 19.0 51.1----30.04- 51.3- 40.1---
0217 1:33 pmWNW 21.0 52.1----30.04- 51.6- 42.1---
0217 1:32 pmWNW 18.1 51.1----30.04- 51.3- 41.2---
0217 1:31 pmWNW 20.0 52.1----30.04- 51.1- 40.5---
0217 1:30 pmWNW 19.0 58.1----30.04- 51.1- 40.6---
0217 1:29 pmWNW 20.0 54.0----30.04- 51.1- 40.5---
0217 1:28 pmWNW 20.0 52.1----30.04- 51.1- 40.6---
0217 1:27 pmWNW 20.0 51.1----30.04- 51.1- 40.3---
0217 1:26 pmWNW 22.0 54.0----30.04- 51.4- 41.5---
0217 1:25 pmWNW 18.1 49.9----30.04- 51.1- 40.3---
0217 1:24 pmWNW 19.0 46.0----30.04- 51.3- 40.5---
0217 1:23 pmWNW 19.0 49.9----30.04- 51.6- 41.0---
0217 1:22 pmWNW 18.1 46.0----30.04- 51.1- 39.6---
0217 1:21 pmWNW 18.1 49.0----30.04- 51.3- 40.8---
0217 1:20 pmWNW 19.0 49.0----30.04- 51.3- 40.1---
0217 1:19 pmWNW 18.1 48.0----30.04- 51.3- 40.1---
0217 1:18 pmWNW 19.0 49.9----30.04- 51.1- 39.2---
0217 1:17 pmWNW 19.0 49.0----30.04- 51.1- 39.9---
0217 1:16 pmWNW 19.0 51.1----30.04- 50.9- 39.2---
0217 1:15 pmWNW 20.0 49.9----30.05- 50.9- 40.1---
0217 1:14 pmWNW 20.0 49.0----30.05- 51.1- 40.8 33.43--
0217 1:13 pmWNW 19.0 49.0----30.05- 51.1- 40.1---
0217 1:12 pmWNW 18.1 47.0----30.05- 51.3- 41.7---
0217 1:11 pmWNW 15.9 42.0----30.05- 50.7- 39.6---
0217 1:10 pmWNW 19.0 48.0----30.05- 51.3- 41.5---
0217 1:09 pmWNW 18.1 49.9----30.05- 51.3- 41.9---
0217 1:08 pmWNW 17.1 48.0----30.05- 51.1- 40.8---
0217 1:07 pmWNW 18.1 49.0----30.05- 51.1- 40.8---
0217 1:06 pmWNW 19.0 49.9----30.05- 50.7- 40.1---
0217 1:05 pmWNW 20.0 49.9----30.05- 50.7- 40.3---
0217 1:04 pmWNW 20.0 48.0----30.05- 50.7- 40.8---
0217 1:03 pmWNW 19.0 49.0----30.05- 50.9- 40.1---
0217 1:02 pmWNW 19.0 48.0----30.05- 51.1- 40.8---
0217 1:01 pmWNW 18.1 49.0----30.05- 51.1- 40.6---
0217 1:00 pmWNW 19.0 52.1----30.05- 50.9- 40.5---
021712:59 pmWNW 21.0 51.1----30.05- 50.9- 40.3---
021712:58 pmWNW 20.0 51.1----30.05- 51.3- 41.2---
021712:57 pmWNW 18.1 51.1----30.05- 51.1- 39.9---
021712:56 pmWNW 19.0 48.0----30.05- 51.1- 40.5---
021712:55 pmWNW 19.0 49.9----30.05- 51.3- 41.0---
021712:54 pmWNW 19.0 51.1----30.05- 51.3- 40.8---
021712:53 pm W 19.0 53.0----30.05- 51.3- 41.5---
021712:52 pmWNW 18.1 51.1----30.05- 50.7- 40.5---
021712:51 pmWNW 20.0 53.0----30.05- 50.7- 40.8---
021712:50 pmWNW 19.0 52.1----30.05- 51.1- 41.4---
021712:49 pmWNW 18.1 49.9----30.05- 50.9- 39.9---
021712:48 pmWNW 20.0 49.0----30.05-0.04 50.7- 39.4---
021712:47 pmWNW 20.0 53.0----30.06- 50.9- 40.1---
021712:46 pmWNW 20.0 51.1----30.06- 51.1- 41.2---
021712:45 pmWNW 19.0 51.1----30.06- 50.9- 40.6---
021712:44 pmWNW 19.0 48.0----30.06- 51.1- 40.8---
021712:43 pmWNW 19.0 47.0----30.06- 51.3- 41.5---
021712:42 pmWNW 17.1 48.0----30.06- 51.3- 40.6---
021712:41 pmWNW 18.1 51.1----30.06- 51.3- 41.7---
021712:40 pm W 17.1 49.0----30.06- 51.3- 40.3---
021712:39 pmWNW 19.0 52.1----30.06- 51.4- 41.0---
021712:38 pmWNW 18.1 52.1----30.06- 50.9- 40.5---
021712:37 pmWNW 20.0 55.9----30.06- 50.5- 38.8---
021712:36 pmWNW 21.0 52.1----30.06- 51.3- 41.4---
021712:35 pmWNW 17.1 44.1----30.06- 50.7- 39.6---
021712:34 pmWNW 19.0 46.0----30.06- 51.1- 40.6---
021712:33 pmWNW 18.1 49.9----30.06- 51.1- 40.6---
021712:32 pmWNW 18.1 47.0----30.06- 50.9- 40.1---
021712:31 pmWNW 20.0 49.9----30.06- 51.1- 41.0---
021712:30 pmWNW 19.0 48.0----30.06- 51.4- 41.5---
021712:29 pmWNW 18.1 51.1----30.06- 51.4- 41.4---
021712:28 pmWNW 18.1 52.1----30.06- 51.6- 40.3---
021712:27 pmWNW 18.1 48.0----30.06- 51.3- 38.7---
021712:26 pmWNW 19.0 49.0----30.06- 51.6- 40.8---
021712:25 pmWNW 14.0 36.9----30.06- 51.4- 39.9---
021712:24 pmWNW 13.0 39.0----30.07- 51.3- 39.9---
021712:23 pmWNW 14.0 38.1----30.07- 51.3- 40.6---
021712:22 pmWNW 15.0 42.0----30.07- 51.4- 40.8---
021712:21 pmWNW 12.0 35.0----30.07- 51.4- 41.2---
021712:20 pmWNW 14.0 35.0----30.07- 51.3- 41.0---
021712:19 pmWNW 14.0 39.0----30.07- 51.1- 40.3---
021712:18 pmWNW 15.0 40.0----30.07- 50.9- 39.6---
021712:17 pmWNW 15.0 39.0----30.07- 50.9- 39.0---
021712:16 pmWNW 15.9 40.0----30.07- 51.3- 40.8---
021712:15 pmWNW 14.0 35.9----30.07- 51.1- 39.9---
021712:14 pm W 14.0 35.0----30.07- 51.1- 40.3 33.40--
021712:13 pmWNW 15.0 36.9----30.07- 51.4- 41.5---
021712:12 pmWNW 14.0 38.1----30.07- 50.7- 39.4---
021712:11 pmWNW 15.0 42.9----30.07- 50.9- 39.9---
021712:10 pmWNW 14.0 35.9----30.07- 51.1- 40.8---
021712:09 pmWNW 14.0 35.0----30.07- 50.9- 40.1---
021712:08 pmWNW 15.0 35.9----30.07- 51.1- 40.3---
021712:07 pmWNW 14.0 39.0----30.07- 51.4- 40.5---
021712:06 pmWNW 14.0 39.0----30.08- 51.3- 40.5---
021712:05 pmWNW 15.0 39.0----30.07- 50.9- 39.2---
021712:04 pmWNW 15.0 42.9----30.07- 51.1- 39.4---
021712:03 pmWNW 15.9 40.0----30.08- 51.3- 40.1---
021712:02 pmWNW 14.0 38.1----30.08- 50.9- 38.7---
021712:01 pmWNW 14.0 36.9----30.08- 51.6- 41.0---
021712:00 pmWNW 12.0 32.1----30.08- 51.1- 39.7---
021711:59 amWNW 13.0 35.0----30.08- 51.3- 39.4---
021711:58 amWNW 12.0 32.1----30.08- 51.1- 39.9---
021711:57 amWNW 13.0 34.0----30.08- 51.1- 39.7---
021711:56 amWNW 12.0 33.0----30.08- 51.3- 39.6---
021711:55 amWNW 12.0 32.1----30.08- 51.3- 40.1---
021711:54 amWNW 9.9 29.9----30.08- 51.1- 39.0---
021711:53 amWNW 12.0 31.1----30.08- 51.3- 39.9---
021711:52 am W 11.1 28.9----30.08- 51.3- 39.6---
021711:51 am W 11.1 29.9----30.08- 51.1- 39.6---
021711:50 amWNW 11.1 28.9----30.08- 50.9- 39.0---
021711:49 amWNW 11.1 31.1----30.08- 51.3- 40.1---
021711:48 amWNW 8.0 22.9----30.08-0.01 50.9- 38.7---
021711:47 amWNW 8.9 25.1----30.08- 50.5- 37.9---
021711:46 amWNW 9.9 25.1----30.08- 50.5- 38.3---
021711:45 amWNW 9.9 28.0----30.08- 50.5- 38.3---
021711:44 amWNW 11.1 28.0----30.08- 50.9- 39.2---
021711:43 amWNW 8.9 29.9----30.08- 50.9- 39.4---
021711:42 am W 8.0 22.9----30.08- 50.7- 39.2---
021711:41 amWNW 8.9 22.9----30.08- 50.7- 39.4---
021711:40 amWNW 9.9 26.0----30.09- 50.9- 38.8---
021711:39 amWNW 9.9 27.0----30.09- 50.7- 39.4---
021711:38 amWNW 11.1 31.1----30.09- 50.4- 38.3---
021711:37 amWNW 8.9 25.1----30.09- 50.4- 37.9---
021711:36 amWNW 11.1 29.9----30.09- 50.2- 37.8---
021711:35 amWNW 13.0 32.1----30.09- 50.9- 40.3---
021711:34 amWNW 12.0 33.0----30.09- 50.7- 39.2---
021711:33 amWNW 9.9 28.9----30.09- 50.5- 38.3---
021711:32 amWNW 12.0 33.0----30.09- 50.9- 39.2---
021711:31 amWNW 11.1 28.0----30.09- 50.9- 40.3---
021711:30 amWNW 9.9 28.0----30.09- 50.4- 37.9---
021711:29 amWNW 11.1 27.0----30.09- 50.5- 39.2---
021711:28 amWNW 8.9 27.0----30.09- 50.5- 39.2---
021711:27 amWNW 8.9 22.9----30.09- 50.2- 37.6---
021711:26 amWNW 9.9 25.1----30.09- 50.2- 37.9---
021711:25 amWNW 12.0 32.1----30.09- 50.7- 39.9---
021711:24 amWNW 12.0 29.9----30.09- 50.7- 39.7---
021711:23 amWNW 11.1 26.0----30.09- 50.7- 39.7---
021711:22 amWNW 9.9 28.0----30.09- 50.9- 39.9---
021711:21 am NW 8.9 26.0----30.09- 50.7- 40.1---
021711:20 amWNW 9.9 27.0----30.09- 50.2- 38.8---
021711:19 amWNW 11.1 28.0----30.09- 50.2- 37.9---
021711:18 amWNW 11.1 27.0----30.09- 50.5- 39.2---
021711:17 amWNW 12.0 29.9----30.09- 50.5- 39.7---
021711:16 amWNW 12.0 31.1----30.09- 50.2- 38.7---
021711:15 amWNW 11.1 28.0----30.09- 50.2- 38.8---
021711:14 amWNW 13.0 31.1----30.09- 50.0- 39.0 33.39--
021711:13 amWNW 12.0 29.9----30.09- 49.8- 37.8---
021711:12 amWNW 14.0 33.0----30.09- 50.2- 39.0---
021711:11 amWNW 12.0 32.1----30.09- 50.2- 39.2---
021711:10 amWNW 12.0 29.9----30.09- 50.5- 39.7---
021711:09 amWNW 11.1 29.9----30.09- 50.5- 40.3---
021711:08 amWNW 12.0 32.1----30.09- 50.7- 40.6---
021711:07 amWNW 12.0 33.0----30.09- 50.7- 40.3---
021711:06 amWNW 8.9 28.0----30.09- 50.4- 40.5---
021711:05 amWNW 7.0 26.0----30.08- 50.2- 39.9---
021711:04 am NW 5.1 20.0----30.08- 50.0- 40.5---
021711:03 am NW 5.1 14.0----30.08- 50.0- 39.9---
021711:02 amNNW 5.1 17.1----30.08- 50.0- 39.7---
021711:01 amNNW 6.0 17.1----30.08- 50.0- 39.6---
021711:00 amNNW 6.0 15.9----30.08- 50.2- 39.7---
021710:59 amNNW 6.0 17.1----30.08- 50.5- 40.3---
021710:58 amNNW 4.1 13.0----30.08- 50.7- 40.8---
021710:57 am N 2.9 9.9----30.08- 50.4- 39.9---
021710:56 am N 2.9 9.9----30.08- 50.5- 40.6---
021710:55 am N 2.9 13.0----30.08- 49.6- 39.7---
021710:54 amNNW 4.1 14.0----30.08- 49.8- 39.9---
021710:53 am N 4.1 12.0----30.08- 49.8- 40.1---
021710:52 amNNW 5.1 19.0----30.08- 49.8- 39.6---
021710:51 amNNW 5.1 15.9----30.08- 49.8- 39.4---
021710:50 am NW 6.0 17.1----30.08- 49.8- 39.6---
021710:49 amWNW 8.0 22.9----30.08- 50.0- 40.8---
021710:48 am NW 5.1 20.0----30.08+0.00 50.0- 40.8---
021710:47 amWNW 6.0 17.1----30.09- 50.0- 40.6---
021710:46 amWNW 5.1 15.9----30.09- 49.8- 40.5---
021710:45 amWNW 6.0 18.1----30.09- 50.2- 41.5---
021710:44 amWNW 6.0 19.0----30.09- 49.5- 40.3---
021710:43 am NW 5.1 15.9----30.09- 49.5- 40.1---
021710:42 am NW 6.0 18.1----30.09- 49.5- 40.5---
021710:41 amWNW 8.0 20.0----30.09- 49.6- 40.6---
021710:40 amWNW 7.0 20.0----30.09- 49.6- 41.0---
021710:39 am W 6.0 18.1----30.09- 49.1- 39.9---
021710:38 amWNW 6.0 15.0----30.09- 48.9- 39.9---
021710:37 amWNW 6.0 18.1----30.09- 49.1- 40.1---
021710:36 amWNW 6.0 15.0----30.09- 48.9- 39.9---
021710:35 amWNW 5.1 14.0----30.09- 48.9- 39.7---
021710:34 amWNW 5.1 15.0----30.09- 49.3- 40.5---
021710:33 amWNW 5.1 13.0----30.09- 49.1- 40.3---
021710:32 am W 6.0 17.1----30.09- 49.1- 40.6---
021710:31 amWNW 6.0 18.1----30.09- 49.1- 40.5---
021710:30 amWNW 5.1 14.0----30.09- 48.9- 40.5---
021710:29 amWNW 6.0 18.1----30.09- 48.9- 39.9---
021710:28 amWNW 6.0 18.1----30.09- 48.9- 40.5---
021710:27 amWNW 5.1 18.1----30.09- 48.7- 40.3---
021710:26 amWNW 6.0 15.9----30.09- 48.6- 39.7---
021710:25 am W 6.0 18.1----30.09- 48.6- 40.1---
021710:24 amWNW 7.0 19.0----30.09- 48.4- 39.6---
021710:23 amWNW 7.0 17.1----30.09- 48.6- 40.3---
021710:22 amWNW 5.1 15.0----30.09- 48.2- 39.9---
021710:21 amWNW 6.0 15.0----30.09- 48.2- 39.7---
021710:20 amWNW 7.0 18.1----30.09- 48.4- 40.1---
021710:19 amWNW 8.0 20.0----30.09- 48.6- 40.8---
021710:18 amWNW 7.0 20.0----30.09- 48.2- 39.9---
021710:17 amWNW 8.0 20.0----30.09- 47.8- 39.7---
021710:16 amWNW 8.0 21.0----30.09- 48.0- 40.1---
021710:15 amWNW 8.0 20.0----30.09- 48.2- 40.5---
021710:14 amWNW 8.0 21.0----30.09- 47.8- 40.1 33.38--
021710:13 amWNW 7.0 20.0----30.09- 47.8- 40.3---
021710:12 amWNW 7.0 20.0----30.09- 47.8- 40.5---
021710:11 amWNW 6.0 20.0----30.09- 47.7- 39.7---
021710:10 amWNW 8.0 20.0----30.09- 47.5- 40.1---
021710:09 amWNW 8.0 22.9----30.09- 47.3- 39.6---
021710:08 amWNW 7.0 20.0----30.09- 47.3- 39.7---
021710:07 amWNW 7.0 19.0----30.09- 47.1- 39.7---
021710:06 amWNW 6.0 18.1----30.09- 47.1- 39.9---
021710:05 amWNW 6.0 15.9----30.09- 46.9- 39.7---
021710:04 amWNW 5.1 14.0----30.09- 46.4- 39.2---
021710:03 amWNW 5.1 14.0----30.09- 46.4- 38.8---
021710:02 amWNW 5.1 13.0----30.09- 46.9- 40.1---
021710:01 am W 5.1 15.0----30.09- 46.2- 39.0---
021710:00 amWNW 6.0 14.0----30.09- 46.2- 38.7---
0217 9:59 amWNW 6.0 15.9----30.09- 46.6- 39.7---
0217 9:58 amWNW 5.1 15.9----30.09- 46.4- 39.2---
0217 9:57 amWNW 7.0 17.1----30.09- 46.2- 39.4---
0217 9:56 amWNW 7.0 19.0----30.09- 45.9- 39.0---
0217 9:55 amWNW 6.0 17.1----30.09- 45.9- 39.0---
0217 9:54 amWNW 6.0 17.1----30.09- 46.0- 39.4---
0217 9:53 amWNW 6.0 15.9----30.09- 46.0- 39.4---
0217 9:52 amWNW 7.0 18.1----30.09- 46.2- 39.9---
0217 9:51 amWNW 8.0 20.0----30.09- 46.2- 39.6---
0217 9:50 amWNW 7.0 18.1----30.09- 46.0- 39.7---
0217 9:49 amWNW 6.0 14.0----30.09- 46.4- 40.5---
0217 9:48 amWNW 6.0 17.1----30.09+0.03 46.2- 40.5---
0217 9:47 am W 6.0 19.0----30.09- 45.7- 39.2---
0217 9:46 amWNW 7.0 17.1----30.09- 46.0- 40.8---
0217 9:45 amWNW 6.0 19.0----30.09- 45.7- 40.3---
0217 9:44 amWNW 6.0 14.0----30.09- 45.7- 40.6---
0217 9:43 amWNW 5.1 15.0----30.09- 44.8- 39.4---
0217 9:42 amWNW 5.1 15.0----30.09- 44.4- 39.4---
0217 9:41 am NW 7.0 18.1----30.09- 44.2- 39.2---
0217 9:40 amWNW 5.1 13.0----30.09- 44.2- 39.4---
0217 9:39 amWNW 5.1 13.0----30.09- 43.9- 39.4---
0217 9:38 amWNW 5.1 13.0----30.09- 44.2- 40.1---
0217 9:37 amWNW 5.1 18.1----30.09- 43.3- 39.4---
0217 9:36 amWNW 6.0 14.0----30.09- 43.3- 39.4---
0217 9:35 amWNW 6.0 17.1----30.09- 43.2- 39.9---
0217 9:34 am NW 6.0 15.0----30.09- 43.3- 39.7---
0217 9:33 am NW 6.0 15.0----30.09- 43.5- 40.1---
0217 9:32 am NW 4.1 12.0----30.09- 43.2- 39.7---
0217 9:31 am NW 5.1 12.0----30.09- 43.2- 39.7---
0217 9:30 am NW 6.0 15.0----30.09- 43.9- 40.8---
0217 9:29 amWNW 4.1 15.0----30.09- 43.5- 40.6---
0217 9:28 am NW 4.1 12.0----30.09- 42.8- 40.1---
0217 9:27 amWNW 5.1 14.0----30.09- 43.0- 39.9---
0217 9:26 am NW 6.0 17.1----30.09- 43.5- 41.0---
0217 9:25 am NW 5.1 15.0----30.09- 43.3- 40.5---
0217 9:24 amNNW 5.1 14.0----30.09- 43.5- 40.8---
0217 9:23 am NW 5.1 15.9----30.09- 43.7- 41.2---
0217 9:22 am NW 4.1 14.0----30.09- 43.3- 40.6---
0217 9:21 am NW 5.1 15.0----30.09- 43.0- 40.6---
0217 9:20 am NW 5.1 15.9----30.09- 43.7- 41.0---
0217 9:19 am NW 5.1 17.1----30.09- 44.2- 42.1---
0217 9:18 amNNW 4.1 15.0----30.09- 44.2- 42.3---
0217 9:17 amNNW 2.9 14.0----30.09- 44.1- 41.7---
0217 9:16 amNNW 4.1 15.9----30.09- 44.1- 42.3---
0217 9:15 amNNW 4.1 15.0----30.09- 43.2- 41.2---
0217 9:14 amNNW 5.1 14.0----30.09- 43.2- 41.2 33.38--
0217 9:13 am NW 5.1 15.0----30.09- 43.5- 41.7---
0217 9:12 am NW 5.1 15.9----30.09- 43.2- 41.7---
0217 9:11 am NW 6.0 15.9----30.09- 43.3- 41.5---
0217 9:10 am NW 6.0 19.0----30.09- 43.7- 42.4---
0217 9:09 am NW 4.1 15.9----30.09- 44.1- 43.2---
0217 9:08 am N 2.9 13.0----30.09- 44.1- 43.2---
0217 9:07 amENE 2.9 7.0----30.09- 44.6- 43.7---
0217 9:06 amENE 1.9 7.0----30.09- 44.4- 43.5---
0217 9:05 amENE 1.9 5.1----30.09- 44.6- 43.7---
0217 9:04 am E 1.9 5.1----30.09- 44.8- 43.9---
0217 9:03 amESE 1.9 4.1----30.09- 44.8- 44.4---
0217 9:02 amSSE 1.0 4.1----30.09- 44.1- 43.5---
0217 9:01 am S 1.9 5.1----30.09- 44.1- 43.0---
0217 9:00 amSSE 1.9 7.0----30.09- 44.1- 43.5---
0217 8:59 am S 1.9 6.0----30.09- 43.9- 43.2---
0217 8:58 am S 1.9 7.0----30.09- 44.2- 43.3---
0217 8:57 am SE 1.9 6.0----30.09- 44.2- 43.3---
0217 8:56 amESE 1.9 6.0----30.09- 44.1- 43.5---
0217 8:55 am- 0.0 1.9----30.09- 44.1- 43.3---
0217 8:54 am- 0.0 2.9----30.09- 44.4- 43.9---
0217 8:53 am- 0.0 4.1----30.09- 44.2- 43.5---
0217 8:52 amSSE 1.9 5.1----30.09- 44.2- 43.7---
0217 8:51 amSSE 1.9 6.0----30.10- 44.6- 44.1---
0217 8:50 amSSE 1.0 4.1----30.09- 45.0- 44.4---
0217 8:49 amSSE 1.0 4.1----30.09- 44.8- 44.2---
0217 8:48 amESE 1.0 2.9----30.09+0.03 44.2- 43.5---
0217 8:47 am E 1.0 4.1----30.09- 43.5- 42.8---
0217 8:46 amENE 1.0 4.1----30.09- 43.7- 43.0---
0217 8:45 amENE 1.9 5.1----30.09- 43.7- 43.2---
0217 8:44 am E 1.9 6.0----30.09- 44.1- 43.3---
0217 8:43 am E 1.9 7.0----30.09- 43.9- 43.0---
0217 8:42 amESE 2.9 8.0----30.09- 44.1- 43.5---
0217 8:41 amESE 2.9 8.0----30.09- 44.1- 43.2---
0217 8:40 amESE 2.9 8.0----30.09- 44.4- 43.7---
0217 8:39 amESE 1.9 6.0----30.09- 44.8- 44.2---
0217 8:38 am- 0.0 4.1----30.09- 44.8- 44.2---
0217 8:37 am- 0.0 0.0----30.09- 44.6- 44.4---
0217 8:36 am- 0.0 1.9----30.09- 44.4- 43.9---
0217 8:35 am S 1.0 4.1----30.09- 44.6- 44.1---
0217 8:34 am- 0.0 2.9----30.09- 44.8- 44.2---
0217 8:33 am- 0.0 1.9----30.09- 45.1- 44.8---
0217 8:32 am- 0.0 1.0----30.09- 44.8- 44.4---
0217 8:31 am- 0.0 0.0----30.09- 44.2- 43.9---
0217 8:30 am- 0.0 2.9----30.09- 44.1- 43.5---
0217 8:29 am SE 1.9 4.1----30.09- 44.2- 43.9---
0217 8:28 amSSE 1.0 4.1----30.09- 44.2- 43.9---
0217 8:27 am- 0.0 1.9----30.09- 43.9- 43.5---
0217 8:26 am- 0.0 0.0----30.09- 43.9- 43.3---
0217 8:25 am- 0.0 0.0----30.09- 43.7- 43.3---
0217 8:24 am- 0.0 0.0----30.09- 43.7- 43.2---
0217 8:23 am S 1.0 4.1----30.09- 43.7- 43.2---
0217 8:22 am S 1.0 4.1----30.09- 43.7- 43.2---
0217 8:21 am S 1.9 4.1----30.09- 43.7- 43.2---
0217 8:20 am S 1.9 5.1----30.09- 43.7- 43.3---
0217 8:19 amSSE 1.0 4.1----30.09- 43.9- 43.5---
0217 8:18 am SE 1.0 5.1----30.09- 43.3- 43.0---
0217 8:17 amSSE 1.0 4.1----30.09- 43.2- 43.0---
0217 8:16 am SE 1.9 5.1----30.09- 43.5- 43.2---
0217 8:15 am SE 1.0 4.1----30.09- 43.3- 42.8---
0217 8:14 am SE 1.0 4.1----30.09- 43.3- 43.0 33.38--
0217 8:13 amESE 1.0 4.1----30.09- 43.5- 43.2---
0217 8:12 amESE 1.9 5.1----30.09- 43.5- 43.2---
0217 8:11 am- 0.0 2.9----30.08- 43.5- 43.2---
0217 8:10 am- 0.0 2.9----30.09- 42.8- 42.3---
0217 8:09 amESE 1.0 4.1----30.08- 42.8- 42.3---
0217 8:08 amESE 1.9 7.0----30.08- 42.6- 42.1---
0217 8:07 amESE 1.9 5.1----30.08- 42.4- 41.9---
0217 8:06 amESE 1.0 4.1----30.08- 42.1- 41.5---
0217 8:05 amESE 1.9 7.0----30.08- 42.1- 41.5---
0217 8:04 amESE 2.9 8.0----30.08- 42.1- 41.4---
0217 8:03 am SE 1.9 5.1----30.08- 42.1- 41.5---
0217 8:02 am SE 1.9 7.0----30.08- 42.1- 41.5---
0217 8:01 amESE 2.9 8.9----30.08- 42.3- 41.5---
0217 8:00 amESE 2.9 8.9----30.08- 42.3- 41.7---
0217 7:59 am SE 2.9 8.0----30.08- 42.4- 41.9---
0217 7:58 amESE 1.9 6.0----30.08- 42.3- 41.9---
0217 7:57 am E 1.9 6.0----30.08- 42.3- 41.7---
0217 7:56 am E 1.9 6.0----30.08- 42.3- 41.9---
0217 7:55 am E 1.9 7.0----30.08- 42.1- 41.5---
0217 7:54 amESE 2.9 9.9----30.08- 42.1- 41.5---
0217 7:53 amESE 1.9 5.1----30.08- 42.1- 41.4---
0217 7:52 amESE 2.9 11.1----30.08- 41.9- 41.4---
0217 7:51 amESE 4.1 13.0----30.08- 42.1- 41.5---
0217 7:50 am E 5.1 14.0----30.08- 41.7- 41.4---
0217 7:49 amESE 2.9 13.0----30.08- 41.7- 41.2---
0217 7:48 amESE 5.1 15.0----30.08+0.00 41.7- 41.2---
0217 7:47 amESE 5.1 13.0----30.08- 41.9- 41.4---
0217 7:46 am E 5.1 15.0----30.08- 42.1- 41.5---
0217 7:45 am E 5.1 15.9----30.08- 42.3- 41.7---
0217 7:44 am E 6.0 15.9----30.08- 42.3- 41.5---
0217 7:43 am E 6.0 18.1----30.08- 42.4- 41.9---
0217 7:42 am E 5.1 20.0----30.08- 42.4- 41.9---
0217 7:41 am NE 2.9 9.9----30.08- 42.4- 41.9---
0217 7:40 am SE 1.9 7.0----30.08- 42.4- 41.7---
0217 7:39 amESE 6.0 19.0----30.08- 42.1- 41.2---
0217 7:38 amESE 5.1 13.0----30.08- 42.3- 41.7---
0217 7:37 am E 4.1 13.0----30.08- 42.1- 41.5---
0217 7:36 am E 4.1 13.0----30.08- 42.1- 41.4---
0217 7:35 am SE 5.1 13.0----30.08- 42.1- 41.7---
0217 7:34 amESE 1.0 6.0----30.09- 42.1- 41.5---
0217 7:33 amESE 1.9 6.0----30.09- 42.1- 41.5---
0217 7:32 am SE 2.9 8.9----30.09- 42.1- 41.5---
0217 7:31 amESE 1.9 8.9----30.09- 41.9- 41.5---
0217 7:30 amESE 1.0 5.1----30.08- 42.1- 41.5---
0217 7:29 am E 1.9 7.0----30.08- 41.9- 41.4---
0217 7:28 amESE 4.1 13.0----30.08- 42.1- 41.4---
0217 7:27 am SE 5.1 15.0----30.08- 42.3- 41.7---
0217 7:26 am SE 4.1 12.0----30.08- 42.3- 41.7---
0217 7:25 amSSE 5.1 15.9----30.08- 42.3- 41.7---
0217 7:24 am SE 4.1 13.0----30.08- 42.3- 41.5---
0217 7:23 am SE 5.1 13.0----30.07- 42.1- 41.5---
0217 7:22 am SE 6.0 19.0----30.07- 42.1- 41.5---
0217 7:21 am SE 4.1 13.0----30.07- 42.1- 41.7---
0217 7:20 amSSE 1.9 6.0----30.07- 42.1- 41.7---
0217 7:19 am W 1.0 5.1----30.07- 42.1- 41.7---
0217 7:18 amWSW 1.0 5.1----30.07- 42.3- 41.9---
0217 7:17 am S 1.9 8.0----30.07- 42.3- 41.5---
0217 7:16 am S 4.1 13.0----30.07- 42.4- 42.1---
0217 7:15 am S 4.1 12.0----30.07- 42.3- 41.7---
0217 7:14 amSSE 2.9 11.1----30.07- 42.1- 41.5 33.37--
0217 7:13 am SE 4.1 12.0----30.07- 42.3- 41.5---
0217 7:12 amSSE 5.1 20.0----30.07- 42.3- 41.9---
0217 7:11 am SE 5.1 18.1----30.07- 42.3- 41.5---
0217 7:10 am SE 5.1 13.0----30.07- 42.3- 41.7---
0217 7:09 amESE 5.1 15.0----30.07- 42.1- 41.5---
0217 7:08 amESE 6.0 15.9----30.07- 42.1- 41.5---
0217 7:07 amESE 6.0 15.0----30.07- 42.1- 41.5---
0217 7:06 amESE 5.1 14.0----30.07- 42.1- 41.5---
0217 7:05 amESE 5.1 12.0----30.07- 42.1- 41.5---
0217 7:04 amESE 5.1 12.0----30.07- 42.1- 41.5---
0217 7:03 amESE 5.1 13.0----30.07- 42.1- 41.5---
0217 7:02 amESE 5.1 13.0----30.07- 41.9- 41.4---
0217 7:01 am SE 4.1 12.0----30.07- 41.9- 41.4---
0217 7:00 am SE 5.1 13.0----30.07- 41.9- 41.4---
0217 6:59 amESE 5.1 14.0----30.07- 41.9- 41.4---
0217 6:58 amESE 6.0 15.9----30.07- 42.1- 41.5---
0217 6:57 amESE 5.1 15.9----30.07- 42.1- 41.5---
0217 6:56 am SE 5.1 13.0----30.06- 42.1- 41.5---
0217 6:55 am SE 4.1 12.0----30.06- 42.3- 41.7---
0217 6:54 am SE 4.1 12.0----30.06- 42.4- 41.9---
0217 6:53 am SE 4.1 13.0----30.07- 42.4- 42.1---
0217 6:52 amSSE 4.1 12.0----30.07- 42.1- 41.7---
0217 6:51 am SE 4.1 12.0----30.06- 42.1- 41.5---
0217 6:50 am SE 2.9 8.9----30.06- 42.1- 41.7---
0217 6:49 am SE 4.1 11.1----30.06- 42.1- 41.5---
0217 6:48 am SE 4.1 12.0----30.06-0.06 42.1- 41.5---
0217 6:47 am SE 5.1 13.0----30.06- 42.1- 41.5---
0217 6:46 am SE 5.1 12.0----30.06- 42.1- 41.7---
0217 6:45 am SE 5.1 14.0----30.06- 42.1- 41.5---
0217 6:44 am SE 5.1 15.0----30.06- 42.3- 41.7---
0217 6:43 am SE 5.1 15.0----30.06- 42.1- 41.5---
0217 6:42 am SE 4.1 12.0----30.07- 42.1- 41.5---
0217 6:41 am SE 4.1 12.0----30.07- 42.1- 41.5---
0217 6:40 am SE 5.1 14.0----30.07- 42.1- 41.5---
0217 6:39 amESE 4.1 12.0----30.07- 42.1- 41.5---
0217 6:38 am SE 5.1 15.0----30.07- 42.1- 41.7---
0217 6:37 amSSE 5.1 15.0----30.07- 42.3- 41.7---
0217 6:36 am SE 4.1 9.9----30.07- 42.1- 41.7---
0217 6:35 am SE 5.1 11.1----30.07- 42.1- 41.5---
0217 6:34 amESE 5.1 12.0----30.07- 42.1- 41.7---
0217 6:33 am SE 2.9 11.1----30.07- 42.1- 41.5---
0217 6:32 am SE 4.1 11.1----30.07- 41.9- 41.5---
0217 6:31 am SE 4.1 11.1----30.07- 42.1- 41.5---
0217 6:30 amESE 6.0 15.0----30.07- 42.3- 41.9---
0217 6:29 am SE 4.1 13.0----30.07- 42.1- 41.7---
0217 6:28 am SE 4.1 11.1----30.08- 42.3- 41.7---
0217 6:27 am SE 5.1 13.0----30.07- 42.3- 41.7---
0217 6:26 am SE 5.1 15.9----30.07- 42.3- 41.9---
0217 6:25 am SE 5.1 15.9----30.07- 42.1- 41.7---
0217 6:24 amSSE 4.1 14.0----30.07- 42.1- 41.5---
0217 6:23 amESE 5.1 14.0----30.07- 41.9- 41.4---
0217 6:22 amESE 5.1 15.0----30.07- 41.9- 41.5---
0217 6:21 am SE 5.1 15.9----30.07- 41.9- 41.5---
0217 6:20 am SE 5.1 15.0----30.07- 41.9- 41.4---
0217 6:19 am SE 5.1 15.9----30.07- 41.9- 41.5---
0217 6:18 am SE 5.1 15.0----30.07- 41.9- 41.4---
0217 6:17 amESE 4.1 11.1----30.07- 41.9- 41.4---
0217 6:16 amESE 5.1 13.0----30.07- 41.9- 41.4---
0217 6:15 am SE 6.0 20.0----30.07- 41.9- 41.4---
0217 6:14 am SE 7.0 20.0----30.07- 41.9- 41.4 33.32--
0217 6:13 amESE 6.0 19.0----30.07- 41.7- 41.2---
0217 6:12 amESE 7.0 20.0----30.07- 41.7- 41.4---
0217 6:11 amESE 8.0 22.9----30.07- 41.7- 41.4---
0217 6:10 amESE 7.0 20.0----30.07- 41.9- 41.4---
0217 6:09 am SE 6.0 22.0----30.07- 41.9- 41.5---
0217 6:08 am SE 7.0 19.0----30.07- 41.9- 41.4---
0217 6:07 amESE 6.0 17.1----30.07- 41.9- 41.4---
0217 6:06 amESE 6.0 19.0----30.07- 41.9- 41.4---
0217 6:05 amESE 6.0 19.0----30.07- 41.9- 41.4---
0217 6:04 am SE 7.0 22.0----30.07- 41.9- 41.4---
0217 6:03 am SE 8.0 22.9----30.07- 41.9- 41.4---
0217 6:02 am SE 7.0 21.0----30.07- 41.9- 41.5---
0217 6:01 am SE 8.0 22.0----30.07- 41.7- 41.2---
0217 6:00 am SE 7.0 22.9----30.07- 41.9- 41.4---
0217 5:59 amESE 7.0 21.0----30.07- 41.9- 41.4---
0217 5:58 am SE 7.0 22.9----30.07- 41.7- 41.2---
0217 5:57 am SE 7.0 20.0----30.07- 41.7- 41.4---
0217 5:56 am SE 8.0 24.1----30.07- 41.5- 41.2---
0217 5:55 am SE 7.0 22.9----30.07- 41.7- 41.2---
0217 5:54 am SE 8.0 25.1----30.06- 41.7- 41.2---
0217 5:53 amESE 7.0 22.0----30.06- 41.7- 41.4---
0217 5:52 am SE 8.0 22.9----30.06- 41.7- 41.4---
0217 5:51 am SE 7.0 21.0----30.06- 41.7- 41.2---
0217 5:50 am SE 8.0 22.0----30.06- 41.7- 41.2---
0217 5:49 amESE 8.0 24.1----30.06- 41.9- 41.2---
0217 5:48 amESE 8.0 25.1----30.06-0.07 41.9- 41.5---
0217 5:47 am SE 7.0 20.0----30.07- 41.9- 41.4---
0217 5:46 am SE 6.0 19.0----30.07- 41.7- 41.5---
0217 5:45 am SE 6.0 21.0----30.07- 41.7- 41.0---
0217 5:44 am SE 7.0 20.0----30.07- 41.7- 41.4---
0217 5:43 am SE 5.1 17.1----30.07- 41.5- 41.0---
0217 5:42 amESE 6.0 18.1----30.08- 41.7- 41.2---
0217 5:41 amESE 6.0 18.1----30.08- 41.5- 41.2---
0217 5:40 amESE 4.1 12.0----30.08- 41.5- 41.2---
0217 5:39 amESE 5.1 13.0----30.08- 41.7- 41.2---
0217 5:38 am SE 4.1 12.0----30.08- 41.7- 41.2---
0217 5:37 amESE 6.0 19.0----30.08- 41.5- 41.2---
0217 5:36 amESE 5.1 15.9----30.08- 41.5- 41.2---
0217 5:35 amESE 6.0 17.1----30.08- 41.5- 41.0---
0217 5:34 amESE 5.1 18.1----30.08- 41.5- 41.2---
0217 5:33 amESE 5.1 17.1----30.08- 41.7- 41.0---
0217 5:32 amESE 6.0 17.1----30.08- 41.7- 41.2---
0217 5:31 amESE 5.1 15.9----30.08- 41.7- 41.0---
0217 5:30 amESE 6.0 19.0----30.08- 41.7- 41.2---
0217 5:29 amESE 5.1 15.9----30.08- 41.5- 41.0---
0217 5:28 amESE 6.0 19.0----30.08- 41.5- 41.0---
0217 5:27 am E 5.1 15.9----30.08- 41.7- 41.2---
0217 5:26 amESE 5.1 22.0----30.08- 41.5- 41.0---
0217 5:25 amESE 7.0 19.0----30.08- 41.7- 41.2---
0217 5:24 am E 5.1 17.1----30.08- 41.7- 41.2---
0217 5:23 amESE 5.1 15.9----30.08- 41.7- 41.2---
0217 5:22 amESE 6.0 17.1----30.08- 41.7- 41.4---
0217 5:21 amESE 6.0 17.1----30.08- 41.7- 41.2---
0217 5:20 amESE 6.0 18.1----30.08- 41.7- 41.2---
0217 5:19 am SE 6.0 18.1----30.08- 41.7- 41.2---
0217 5:18 am SE 7.0 18.1----30.08- 41.7- 41.2---
0217 5:17 am SE 6.0 20.0----30.08- 41.9- 41.4---
0217 5:16 am SE 5.1 15.0----30.08- 41.9- 41.4---
0217 5:15 am SE 4.1 13.0----30.08- 41.9- 41.4---
0217 5:14 am SE 5.1 14.0----30.08- 41.7- 41.2 33.32--
0217 5:13 am SE 5.1 15.0----30.08- 41.7- 41.2---
0217 5:12 am SE 6.0 17.1----30.08- 41.7- 41.2---
0217 5:11 am SE 6.0 19.0----30.08- 41.9- 41.2---
0217 5:10 am SE 6.0 18.1----30.08- 41.7- 41.2---
0217 5:09 am SE 6.0 15.0----30.08- 41.7- 41.0---
0217 5:08 am SE 5.1 15.9----30.08- 41.7- 41.0---
0217 5:07 am SE 6.0 15.9----30.08- 41.5- 41.0---
0217 5:06 am SE 6.0 19.0----30.08- 41.5- 41.0---
0217 5:05 am SE 5.1 15.0----30.08- 41.7- 41.0---
0217 5:04 amESE 6.0 15.9----30.08- 41.7- 40.8---
0217 5:03 am SE 6.0 18.1----30.08- 41.7- 41.0---
0217 5:02 am SE 6.0 20.0----30.08- 41.7- 40.8---
0217 5:01 am SE 5.1 15.9----30.08- 41.5- 40.8---
0217 5:00 am SE 7.0 22.9----30.08- 41.7- 40.8---
0217 4:59 am SE 7.0 19.0----30.08- 41.7- 40.8---
0217 4:58 am SE 6.0 21.0----30.08- 41.7- 40.8---
0217 4:57 amESE 7.0 22.0----30.08- 41.7- 41.0---
0217 4:56 am SE 7.0 22.9----30.08- 41.7- 40.8---
0217 4:55 am SE 6.0 18.1----30.08- 41.7- 41.0---
0217 4:54 am SE 6.0 18.1----30.08- 41.7- 40.8---
0217 4:53 am SE 7.0 22.9----30.08- 41.7- 40.8---
0217 4:52 am SE 8.0 22.0----30.08- 41.7- 40.8---
0217 4:51 am SE 7.0 20.0----30.08- 41.7- 40.8---
0217 4:50 am SE 6.0 19.0----30.08- 41.7- 40.8---

Ocean Conditions at MLSC1 as of
(5:00 am PST)
1300 GMT on 02/18/2019:

These oceanographic data are displayed in rounded times.

     

Click on the graph icon in the table below to see a time series plot of the last five days of that observation.

 Depth (DEPTH): 0.0 ft
5-day plot - Ocean TemperatureOcean Temperature (OTMP):55.44 °F
5-day plot - SalinitySalinity (SAL):33.43 psu
5-day plot - Oxygen Concentration (O2PPM)Oxygen Concentration (O2PPM): 8.08 ppm
Previous observations
5-day plot - Ocean Temperature 5-day plot - Conductivity 5-day plot - Salinity 5-day plot - Oxygen Concentration (O2PCT) 5-day plot - Oxygen Concentration (O2PPM) 5-day plot - Chlorophyll 5-day plot - Turbidity 5-day plot - pH 5-day plot - Eh
MM   DD    TIME
(PST)
DEPTH
ft
       OTMP
°F
   COND
mS/cm
  SAL
psu
  O2%
%
   O2PPM
ppm
CLCON
ug/l
TURB
FTU
PH EH
mv
02184:00 am 0.055.45-33.41- 8.07----
02183:00 am 0.055.58-33.44- 8.16----
02182:00 am 0.055.65-33.44- 8.10----
02181:00 am 0.055.76-33.45- 8.00----
021812:00 am 0.055.72-33.48- 7.89----
021711:00 pm 0.055.76-33.45-10.28----
021710:00 pm 0.055.99-33.44- 7.81----
02179:00 pm 0.055.90-33.42- 7.87----
02178:00 pm 0.055.98-33.39-11.00----
02177:00 pm 0.055.89-33.37-10.64----
02176:00 pm 0.056.61-33.17- 8.19----
02175:00 pm 0.056.23-32.97- 8.25----
02174:00 pm 0.056.44-32.74- 8.11----
02173:00 pm 0.056.46-33.31- 8.89----
02172:00 pm 0.056.44-33.37- 8.24----
02171:00 pm 0.056.52-33.43- 8.51----
021712:00 pm 0.056.43-33.40- 8.00----
021711:00 am 0.056.26-33.39- 8.11----
021710:00 am 0.056.10-33.38- 8.01----
02179:00 am 0.055.92-33.38- 7.78----
02178:00 am 0.055.80-33.38- 7.88----
02177:00 am 0.055.65-33.37- 7.99----
02176:00 am 0.055.65-33.32- 8.00----
02175:00 am 0.055.54-33.32- 8.10----

Solar Radiation Conditions at MLSC1 as of
(5:00 am PST)
1300 GMT on 02/18/2019:
     

Click on the graph icon in the table below to see a time series plot of the last five days of that observation.

5-day plot - Short Wave Radiation 1Short Wave Radiation 1 (SRAD1): -1.0watts/meter2
Previous observations
5-day plot - Short Wave Radiation 1 5-day plot - Short Wave Radiation 2 5-day plot - Long Wave Radiation
MM   DD    TIME
(PST)
  SRAD1
w/m2
   SWRAD
w/m2
    LWRAD
w/m2
02184:00 am -1.0--
02183:00 am -1.0--
02182:00 am -2.0--
02181:00 am -1.0--
021812:00 am -1.0--
021711:00 pm -2.0--
021710:00 pm -2.0--
02179:00 pm -2.0--
02178:00 pm -2.0--
02177:00 pm -2.0--
02176:00 pm -2.0--
02175:00 pm 46.0--
02174:00 pm 382.0--
02173:00 pm 743.0--
02172:00 pm1078.0--
02171:00 pm1319.0--
021712:00 pm1402.0--
021711:00 am1204.0--
021710:00 am 979.0--
02179:00 am 918.0--
02178:00 am 600.0--
02177:00 am 51.0--
02176:00 am 1.0--
02175:00 am -1.0--

Rainfall at MLSC1 as of
(5:00 am PST)
1300 GMT on 02/18/2019:
     

Click on the graph icon in the table below to see a time series plot of the last five days of that observation.

* indicates interpolated rain values

Previous observations
  5-day plot - Hourly Rain Accmulation   -------- Ten-minute Rain Rates (Centered at hour + minutes) ---------
MM   DD    TIME
(PST)
  Hourly Accum
inches
  0
inches/hour
  10
inches/hour
  20
inches/hour
  30
inches/hour
  40
inches/hour
  50
inches/hour
 
02185:00 am0.00- - - - - - 
02184:00 am0.00- - - - - - 
02183:00 am0.00- - - - - - 
02182:00 am0.00- - - - - - 
02181:00 am0.00- - - - - - 
021812:00 am0.00- - - - - - 
021811:00 pm0.26- - - - - - 
021810:00 pm0.26- - - - - - 
02189:00 pm0.26- - - - - - 
02188:00 pm0.26- - - - - - 
02187:00 pm0.26- - - - - - 
02186:00 pm0.26- - - - - - 
02185:00 pm0.26- - - - - - 
02184:00 pm0.26- - - - - - 
02173:00 pm0.26- - - - - - 
02172:00 pm0.26- - - - - - 
02171:00 pm0.26- - - - - - 
021712:00 pm0.26- - - - - - 
021711:00 am0.26- - - - - - 
021710:00 am0.26- - - - - - 
02179:00 am0.26- - - - - - 
02178:00 am0.26- - - - - - 
02177:00 am0.26- - - - - - 
02176:00 am0.23- - - - - - 
02175:00 am0.20- - - - - - 

Description of Measurements

Links which are specific to this station are listed below:

Real Time Data in tabular form for the last forty-five days.

Historical Data & Climatic Summaries for quality controlled data for the current month, previous months, and previous years.